Observation data for Wall on 06/26/2019      Previous  Date  Next       Current Mesonet Observations  Soil Data  Daily Summary Page  Observations in Plain Language
KWA1 260500Z 16010KT 24/20 A3007 RMK A01 T02380197  RH  078%=      5-min Rain = 0
KWA1 260501Z 15010KT 24/20 A3007 RMK A01 T02380197  RH  078%=      5-min Rain = 0
KWA1 260502Z 15010KT 24/20 A3007 RMK A01 T02380197  RH  078%=      5-min Rain = 0
KWA1 260503Z 15011KT 24/20 A3007 RMK A01 T02380197  RH  078%=      5-min Rain = 0
KWA1 260504Z 15010KT 24/20 A3007 RMK A01 T02390197  RH  078%=      5-min Rain = 0
KWA1 260505Z 15011KT 24/20 A3007 RMK A01 T02380197  RH  078%=      5-min Rain = 0
KWA1 260506Z 15012KT 24/20 A3007 RMK A01 T02390197  RH  078%=      5-min Rain = 0
KWA1 260507Z 15011KT 24/20 A3007 RMK A01 T02390197  RH  077%=      5-min Rain = 0
KWA1 260508Z 15011KT 24/20 A3007 RMK A01 T02390198  RH  077%=      5-min Rain = 0
KWA1 260509Z 15012KT 24/20 A3007 RMK A01 T02400198  RH  077%=      5-min Rain = 0
KWA1 260510Z 15011KT 24/20 A3007 RMK A01 T02400198  RH  077%=      5-min Rain = 0
KWA1 260511Z 15011KT 24/20 A3007 RMK A01 T02400198  RH  077%=      5-min Rain = 0
KWA1 260512Z 15011KT 24/20 A3007 RMK A01 T02400199  RH  078%=      5-min Rain = 0
KWA1 260513Z 15012KT 24/20 A3007 RMK A01 T02400198  RH  078%=      5-min Rain = 0
KWA1 260514Z 15011KT 24/20 A3007 RMK A01 T02400199  RH  078%=      5-min Rain = 0
KWA1 260515Z 15010KT 24/20 A3007 RMK A01 T02400199  RH  078%=      5-min Rain = 0
KWA1 260516Z 15012KT 24/20 A3007 RMK A01 T02390199  RH  078%=      5-min Rain = 0
KWA1 260517Z 15011KT 24/20 A3007 RMK A01 T02390199  RH  078%=      5-min Rain = 0
KWA1 260518Z 15013KT 24/20 A3007 RMK A01 T02390199  RH  078%=      5-min Rain = 0
KWA1 260519Z 15011KT 24/20 A3007 RMK A01 T02390199  RH  078%=      5-min Rain = 0
KWA1 260520Z 15013KT 24/20 A3007 RMK A01 T02390199  RH  078%=      5-min Rain = 0
KWA1 260521Z 15013KT 24/20 A3007 RMK A01 T02390199  RH  078%=      5-min Rain = 0
KWA1 260522Z 15013KT 24/20 A3007 RMK A01 T02390199  RH  078%=      5-min Rain = 0
KWA1 260523Z 15013KT 24/20 A3007 RMK A01 T02400200  RH  078%=      5-min Rain = 0
KWA1 260524Z 15012KT 24/20 A3007 RMK A01 T02400200  RH  078%=      5-min Rain = 0
KWA1 260525Z 15012KT 24/20 A3007 RMK A01 T02400200  RH  078%=      5-min Rain = 0
KWA1 260526Z 15014KT 24/20 A3007 RMK A01 T02400201  RH  079%=      5-min Rain = 0
KWA1 260527Z 15013KT 24/20 A3007 RMK A01 T02400200  RH  078%=      5-min Rain = 0
KWA1 260528Z 15013KT 24/20 A3007 RMK A01 T02400200  RH  078%=      5-min Rain = 0
KWA1 260529Z 15012KT 24/20 A3007 RMK A01 T02400200  RH  079%=      5-min Rain = 0
KWA1 260530Z 15012KT 24/20 A3007 RMK A01 T02400201  RH  079%=      5-min Rain = 0
KWA1 260531Z 15012KT 24/20 A3007 RMK A01 T02390201  RH  079%=      5-min Rain = 0
KWA1 260532Z 15012KT 24/20 A3007 RMK A01 T02390201  RH  079%=      5-min Rain = 0
KWA1 260533Z 15012KT 24/20 A3007 RMK A01 T02390201  RH  079%=      5-min Rain = 0
KWA1 260534Z 15013KT 24/20 A3007 RMK A01 T02390201  RH  079%=      5-min Rain = 0
KWA1 260535Z 15012KT 24/20 A3007 RMK A01 T02390201  RH  079%=      5-min Rain = 0
KWA1 260536Z 15012KT 24/20 A3007 RMK A01 T02390201  RH  079%=      5-min Rain = 0
KWA1 260537Z 15012KT 24/20 A3007 RMK A01 T02390202  RH  080%=      5-min Rain = 0
KWA1 260538Z 15012KT 24/20 A3007 RMK A01 T02390202  RH  080%=      5-min Rain = 0
KWA1 260539Z 15013KT 24/20 A3007 RMK A01 T02380202  RH  080%=      5-min Rain = 0
KWA1 260540Z 15013KT 24/20 A3006 RMK A01 T02380202  RH  080%=      5-min Rain = 0
KWA1 260541Z 15012KT 24/20 A3006 RMK A01 T02380202  RH  080%=      5-min Rain = 0
KWA1 260542Z 15012KT 24/20 A3006 RMK A01 T02380202  RH  080%=      5-min Rain = 0
KWA1 260543Z 15012KT 24/20 A3006 RMK A01 T02380202  RH  081%=      5-min Rain = 0
KWA1 260544Z 15012KT 24/20 A3006 RMK A01 T02380202  RH  081%=      5-min Rain = 0
KWA1 260545Z 15012KT 24/20 A3006 RMK A01 T02370202  RH  081%=      5-min Rain = 0
KWA1 260546Z 15013KT 24/20 A3006 RMK A01 T02370202  RH  081%=      5-min Rain = 0
KWA1 260547Z 15013KT 24/20 A3006 RMK A01 T02370203  RH  081%=      5-min Rain = 0
KWA1 260548Z 15012KT 24/20 A3007 RMK A01 T02370202  RH  081%=      5-min Rain = 0
KWA1 260549Z 15013KT 24/20 A3006 RMK A01 T02370202  RH  081%=      5-min Rain = 0
KWA1 260550Z 15012KT 24/20 A3007 RMK A01 T02380203  RH  081%=      5-min Rain = 0
KWA1 260551Z 15012KT 24/20 A3006 RMK A01 T02380203  RH  081%=      5-min Rain = 0
KWA1 260552Z 15011KT 24/20 A3007 RMK A01 T02380203  RH  081%=      5-min Rain = 0
KWA1 260553Z 15011KT 24/20 A3007 RMK A01 T02380203  RH  081%=      5-min Rain = 0
KWA1 260554Z 16012KT 24/20 A3007 RMK A01 T02370203  RH  081%=      5-min Rain = 0
KWA1 260555Z 16013KT 24/20 A3007 RMK A01 T02370203  RH  081%=      5-min Rain = 0
KWA1 260556Z 16012KT 24/20 A3007 RMK A01 T02370203  RH  081%=      5-min Rain = 0
KWA1 260557Z 16013KT 24/20 A3007 RMK A01 T02370203  RH  081%=      5-min Rain = 0
KWA1 260558Z 16012KT 24/20 A3007 RMK A01 T02370203  RH  081%=      5-min Rain = 0
KWA1 260559Z 16012KT 24/20 A3007 RMK A01 T02370203  RH  081%=      5-min Rain = 0
KWA1 260600Z 16012KT 24/20 A3007 RMK A01 T02370203  RH  082%=      5-min Rain = 0
KWA1 260601Z 15012KT 24/20 A3007 RMK A01 T02360203  RH  082%=      5-min Rain = 0
KWA1 260602Z 16012KT 24/20 A3007 RMK A01 T02360203  RH  082%=      5-min Rain = 0
KWA1 260603Z 16011KT 24/20 A3007 RMK A01 T02360203  RH  082%=      5-min Rain = 0
KWA1 260604Z 16011KT 24/20 A3007 RMK A01 T02360203  RH  082%=      5-min Rain = 0
KWA1 260605Z 16011KT 24/20 A3007 RMK A01 T02360203  RH  082%=      5-min Rain = 0
KWA1 260606Z 16012KT 24/20 A3006 RMK A01 T02350203  RH  082%=      5-min Rain = 0
KWA1 260607Z 16011KT 24/20 A3006 RMK A01 T02350203  RH  082%=      5-min Rain = 0
KWA1 260608Z 16011KT 24/20 A3006 RMK A01 T02350203  RH  082%=      5-min Rain = 0
KWA1 260609Z 16012KT 24/20 A3006 RMK A01 T02350203  RH  082%=      5-min Rain = 0
KWA1 260610Z 15012KT 24/20 A3006 RMK A01 T02350203  RH  082%=      5-min Rain = 0
KWA1 260611Z 15012KT 24/20 A3006 RMK A01 T02350203  RH  082%=      5-min Rain = 0
KWA1 260612Z 15011KT 24/20 A3006 RMK A01 T02350204  RH  083%=      5-min Rain = 0
KWA1 260613Z 15012KT 23/20 A3006 RMK A01 T02340203  RH  083%=      5-min Rain = 0
KWA1 260614Z 15011KT 23/20 A3006 RMK A01 T02340203  RH  083%=      5-min Rain = 0
KWA1 260615Z 15011KT 23/20 A3006 RMK A01 T02340203  RH  083%=      5-min Rain = 0
KWA1 260616Z 15011KT 23/20 A3006 RMK A01 T02340203  RH  083%=      5-min Rain = 0
KWA1 260617Z 15010KT 23/20 A3006 RMK A01 T02330203  RH  083%=      5-min Rain = 0
KWA1 260618Z 15011KT 23/20 A3006 RMK A01 T02330203  RH  083%=      5-min Rain = 0
KWA1 260619Z 16012KT 23/20 A3006 RMK A01 T02330203  RH  083%=      5-min Rain = 0
KWA1 260620Z 16011KT 23/20 A3006 RMK A01 T02330203  RH  083%=      5-min Rain = 0
KWA1 260621Z 16010KT 23/20 A3006 RMK A01 T02330203  RH  083%=      5-min Rain = 0
KWA1 260622Z 16009KT 23/20 A3006 RMK A01 T02340203  RH  083%=      5-min Rain = 0
KWA1 260623Z 15010KT 23/20 A3006 RMK A01 T02330203  RH  083%=      5-min Rain = 0
KWA1 260624Z 15010KT 23/20 A3006 RMK A01 T02330203  RH  083%=      5-min Rain = 0
KWA1 260625Z 15011KT 23/20 A3006 RMK A01 T02330203  RH  084%=      5-min Rain = 0
KWA1 260626Z 15010KT 23/20 A3006 RMK A01 T02330203  RH  084%=      5-min Rain = 0
KWA1 260627Z 15009KT 23/20 A3006 RMK A01 T02330204  RH  084%=      5-min Rain = 0
KWA1 260628Z 15010KT 23/20 A3006 RMK A01 T02320203  RH  084%=      5-min Rain = 0
KWA1 260629Z 15010KT 23/20 A3006 RMK A01 T02320203  RH  084%=      5-min Rain = 0
KWA1 260630Z 15009KT 23/20 A3006 RMK A01 T02320203  RH  084%=      5-min Rain = 0
KWA1 260631Z 15009KT 23/20 A3006 RMK A01 T02320203  RH  084%=      5-min Rain = 0
KWA1 260632Z 15010KT 23/20 A3006 RMK A01 T02310203  RH  084%=      5-min Rain = 0
KWA1 260633Z 15009KT 23/20 A3006 RMK A01 T02310203  RH  084%=      5-min Rain = 0
KWA1 260634Z 15010KT 23/20 A3006 RMK A01 T02300203  RH  084%=      5-min Rain = 0
KWA1 260635Z 15010KT 23/20 A3006 RMK A01 T02300202  RH  084%=      5-min Rain = 0
KWA1 260636Z 15010KT 23/20 A3006 RMK A01 T02300202  RH  084%=      5-min Rain = 0
KWA1 260637Z 15011KT 23/20 A3006 RMK A01 T02310203  RH  084%=      5-min Rain = 0
KWA1 260638Z 16011KT 23/20 A3006 RMK A01 T02300202  RH  084%=      5-min Rain = 0
KWA1 260639Z 16010KT 23/20 A3006 RMK A01 T02310202  RH  084%=      5-min Rain = 0
KWA1 260640Z 16010KT 23/20 A3006 RMK A01 T02300202  RH  084%=      5-min Rain = 0
KWA1 260641Z 15010KT 23/20 A3006 RMK A01 T02300202  RH  084%=      5-min Rain = 0
KWA1 260642Z 15010KT 23/20 A3006 RMK A01 T02300202  RH  084%=      5-min Rain = 0
KWA1 260643Z 15010KT 23/20 A3006 RMK A01 T02300202  RH  084%=      5-min Rain = 0
KWA1 260644Z 15010KT 23/20 A3006 RMK A01 T02300202  RH  084%=      5-min Rain = 0
KWA1 260645Z 15009KT 23/20 A3006 RMK A01 T02290202  RH  085%=      5-min Rain = 0
KWA1 260646Z 15009KT 23/20 A3006 RMK A01 T02290202  RH  085%=      5-min Rain = 0
KWA1 260647Z 15009KT 23/20 A3006 RMK A01 T02280201  RH  085%=      5-min Rain = 0
KWA1 260648Z 15010KT 23/20 A3006 RMK A01 T02290202  RH  085%=      5-min Rain = 0
KWA1 260649Z 15010KT 23/20 A3006 RMK A01 T02280202  RH  085%=      5-min Rain = 0
KWA1 260650Z 15010KT 23/20 A3006 RMK A01 T02280202  RH  085%=      5-min Rain = 0
KWA1 260651Z 14010KT 23/20 A3006 RMK A01 T02280201  RH  085%=      5-min Rain = 0
KWA1 260652Z 15010KT 23/20 A3006 RMK A01 T02280201  RH  085%=      5-min Rain = 0
KWA1 260653Z 15010KT 23/20 A3006 RMK A01 T02280201  RH  085%=      5-min Rain = 0
KWA1 260654Z 15010KT 23/20 A3006 RMK A01 T02290201  RH  084%=      5-min Rain = 0
KWA1 260655Z 16010KT 23/20 A3006 RMK A01 T02290201  RH  084%=      5-min Rain = 0
KWA1 260656Z 16010KT 23/20 A3006 RMK A01 T02290201  RH  085%=      5-min Rain = 0
KWA1 260657Z 15010KT 23/20 A3006 RMK A01 T02280201  RH  085%=      5-min Rain = 0
KWA1 260658Z 15010KT 23/20 A3006 RMK A01 T02280201  RH  085%=      5-min Rain = 0
KWA1 260659Z 15010KT 23/20 A3007 RMK A01 T02280201  RH  085%=      5-min Rain = 0
KWA1 260700Z 16010KT 23/20 A3007 RMK A01 T02280201  RH  085%=      5-min Rain = 0
KWA1 260701Z 16010KT 23/20 A3006 RMK A01 T02270200  RH  085%=      5-min Rain = 0
KWA1 260702Z 16009KT 23/20 A3007 RMK A01 T02270200  RH  085%=      5-min Rain = 0
KWA1 260703Z 16010KT 23/20 A3007 RMK A01 T02270200  RH  085%=      5-min Rain = 0
KWA1 260704Z 16008KT 23/20 A3007 RMK A01 T02270200  RH  085%=      5-min Rain = 0
KWA1 260705Z 16009KT 23/20 A3007 RMK A01 T02270200  RH  085%=      5-min Rain = 0
KWA1 260706Z 16008KT 23/20 A3007 RMK A01 T02270200  RH  085%=      5-min Rain = 0
KWA1 260707Z 16008KT 23/20 A3007 RMK A01 T02270200  RH  085%=      5-min Rain = 0
KWA1 260708Z 16009KT 23/20 A3007 RMK A01 T02260199  RH  085%=      5-min Rain = 0
KWA1 260709Z 16009KT 23/20 A3007 RMK A01 T02260199  RH  085%=      5-min Rain = 0
KWA1 260710Z 16009KT 23/20 A3007 RMK A01 T02260199  RH  084%=      5-min Rain = 0
KWA1 260711Z 16010KT 23/20 A3007 RMK A01 T02260199  RH  084%=      5-min Rain = 0
KWA1 260712Z 16009KT 23/20 A3007 RMK A01 T02260198  RH  084%=      5-min Rain = 0
KWA1 260713Z 16009KT 23/20 A3007 RMK A01 T02260198  RH  084%=      5-min Rain = 0
KWA1 260714Z 16009KT 23/20 A3007 RMK A01 T02260198  RH  084%=      5-min Rain = 0
KWA1 260715Z 16008KT 23/20 A3007 RMK A01 T02260198  RH  084%=      5-min Rain = 0
KWA1 260716Z 16009KT 23/20 A3007 RMK A01 T02250198  RH  084%=      5-min Rain = 0
KWA1 260717Z 16008KT 23/20 A3007 RMK A01 T02250198  RH  084%=      5-min Rain = 0
KWA1 260718Z 16008KT 23/20 A3006 RMK A01 T02250197  RH  085%=      5-min Rain = 0
KWA1 260719Z 16007KT 22/20 A3006 RMK A01 T02240197  RH  085%=      5-min Rain = 0
KWA1 260720Z 16008KT 22/20 A3006 RMK A01 T02240197  RH  085%=      5-min Rain = 0
KWA1 260721Z 16007KT 22/20 A3006 RMK A01 T02240197  RH  085%=      5-min Rain = 0
KWA1 260722Z 16009KT 22/20 A3006 RMK A01 T02230197  RH  085%=      5-min Rain = 0
KWA1 260723Z 16008KT 22/20 A3006 RMK A01 T02230197  RH  085%=      5-min Rain = 0
KWA1 260724Z 16008KT 22/20 A3006 RMK A01 T02230197  RH  085%=      5-min Rain = 0
KWA1 260725Z 16008KT 22/20 A3006 RMK A01 T02230196  RH  085%=      5-min Rain = 0
KWA1 260726Z 16008KT 22/20 A3007 RMK A01 T02230197  RH  085%=      5-min Rain = 0
KWA1 260727Z 16007KT 22/20 A3007 RMK A01 T02230197  RH  085%=      5-min Rain = 0
KWA1 260728Z 16007KT 22/20 A3007 RMK A01 T02230197  RH  085%=      5-min Rain = 0
KWA1 260729Z 16007KT 22/20 A3007 RMK A01 T02230197  RH  085%=      5-min Rain = 0
KWA1 260730Z 16007KT 22/20 A3007 RMK A01 T02230197  RH  085%=      5-min Rain = 0
KWA1 260731Z 16007KT 22/20 A3007 RMK A01 T02220197  RH  085%=      5-min Rain = 0
KWA1 260732Z 16007KT 22/20 A3007 RMK A01 T02220196  RH  085%=      5-min Rain = 0
KWA1 260733Z 16007KT 22/20 A3007 RMK A01 T02220197  RH  086%=      5-min Rain = 0
KWA1 260734Z 16007KT 22/20 A3007 RMK A01 T02210196  RH  086%=      5-min Rain = 0
KWA1 260735Z 16006KT 22/20 A3007 RMK A01 T02210197  RH  086%=      5-min Rain = 0
KWA1 260736Z 17006KT 22/20 A3007 RMK A01 T02210196  RH  086%=      5-min Rain = 0
KWA1 260737Z 17006KT 22/20 A3006 RMK A01 T02210197  RH  086%=      5-min Rain = 0
KWA1 260738Z 18006KT 22/20 A3006 RMK A01 T02200197  RH  086%=      5-min Rain = 0
KWA1 260739Z 18005KT 22/20 A3006 RMK A01 T02200197  RH  087%=      5-min Rain = 0
KWA1 260740Z 17005KT 22/20 A3007 RMK A01 T02200197  RH  087%=      5-min Rain = 0
KWA1 260741Z 16005KT 22/20 A3007 RMK A01 T02200197  RH  087%=      5-min Rain = 0
KWA1 260742Z 16005KT 22/20 A3007 RMK A01 T02190196  RH  087%=      5-min Rain = 0
KWA1 260743Z 15005KT 22/20 A3007 RMK A01 T02190197  RH  087%=      5-min Rain = 0
KWA1 260744Z 15005KT 22/20 A3007 RMK A01 T02190197  RH  087%=      5-min Rain = 0
KWA1 260745Z 15005KT 22/20 A3007 RMK A01 T02180196  RH  087%=      5-min Rain = 0
KWA1 260746Z 15005KT 22/20 A3007 RMK A01 T02180196  RH  088%=      5-min Rain = 0
KWA1 260747Z 15005KT 22/20 A3007 RMK A01 T02170196  RH  088%=      5-min Rain = 0
KWA1 260748Z 15005KT 22/20 A3007 RMK A01 T02170196  RH  088%=      5-min Rain = 0
KWA1 260749Z 16005KT 22/20 A3007 RMK A01 T02170196  RH  088%=      5-min Rain = 0
KWA1 260750Z 16005KT 22/20 A3007 RMK A01 T02170196  RH  088%=      5-min Rain = 0
KWA1 260751Z 17005KT 22/20 A3007 RMK A01 T02170196  RH  088%=      5-min Rain = 0
KWA1 260752Z 17004KT 22/20 A3007 RMK A01 T02160196  RH  088%=      5-min Rain = 0
KWA1 260753Z 17005KT 22/20 A3007 RMK A01 T02160196  RH  088%=      5-min Rain = 0
KWA1 260754Z 17005KT 22/20 A3007 RMK A01 T02150196  RH  089%=      5-min Rain = 0
KWA1 260755Z 17005KT 22/20 A3007 RMK A01 T02150196  RH  089%=      5-min Rain = 0
KWA1 260756Z 17005KT 22/20 A3007 RMK A01 T02150196  RH  089%=      5-min Rain = 0
KWA1 260757Z 17005KT 21/20 A3007 RMK A01 T02140195  RH  089%=      5-min Rain = 0
KWA1 260758Z 17005KT 21/20 A3007 RMK A01 T02140196  RH  089%=      5-min Rain = 0
KWA1 260759Z 17005KT 21/20 A3007 RMK A01 T02130195  RH  090%=      5-min Rain = 0
KWA1 260800Z 18005KT 21/20 A3007 RMK A01 T02130196  RH  090%=      5-min Rain = 0
KWA1 260801Z 18005KT 21/20 A3007 RMK A01 T02130196  RH  090%=      5-min Rain = 0
KWA1 260802Z 19006KT 21/20 A3007 RMK A01 T02130196  RH  090%=      5-min Rain = 0
KWA1 260803Z 20005KT 21/20 A3007 RMK A01 T02130196  RH  090%=      5-min Rain = 0
KWA1 260804Z 20006KT 21/20 A3007 RMK A01 T02130196  RH  090%=      5-min Rain = 0
KWA1 260805Z 21006KT 21/20 A3007 RMK A01 T02130196  RH  090%=      5-min Rain = 0
KWA1 260806Z 21006KT 21/20 A3007 RMK A01 T02130196  RH  090%=      5-min Rain = 0
KWA1 260807Z 21006KT 21/20 A3007 RMK A01 T02130196  RH  090%=      5-min Rain = 0
KWA1 260808Z 21006KT 21/20 A3007 RMK A01 T02130197  RH  090%=      5-min Rain = 0
KWA1 260809Z 20005KT 21/20 A3007 RMK A01 T02130197  RH  090%=      5-min Rain = 0
KWA1 260810Z 20005KT 21/20 A3007 RMK A01 T02130196  RH  090%=      5-min Rain = 0
KWA1 260811Z 20005KT 21/20 A3007 RMK A01 T02130197  RH  090%=      5-min Rain = 0
KWA1 260812Z 20005KT 21/20 A3007 RMK A01 T02130197  RH  091%=      5-min Rain = 0
KWA1 260813Z 21005KT 21/20 A3007 RMK A01 T02130197  RH  091%=      5-min Rain = 0
KWA1 260814Z 21005KT 21/20 A3007 RMK A01 T02120196  RH  091%=      5-min Rain = 0
KWA1 260815Z 21005KT 21/20 A3007 RMK A01 T02120196  RH  091%=      5-min Rain = 0
KWA1 260816Z 21005KT 21/20 A3007 RMK A01 T02120196  RH  091%=      5-min Rain = 0
KWA1 260817Z 22005KT 21/20 A3007 RMK A01 T02120196  RH  091%=      5-min Rain = 0
KWA1 260818Z 21005KT 21/20 A3007 RMK A01 T02120197  RH  091%=      5-min Rain = 0
KWA1 260819Z 21005KT 21/20 A3007 RMK A01 T02110196  RH  091%=      5-min Rain = 0
KWA1 260820Z 21005KT 21/20 A3007 RMK A01 T02110197  RH  091%=      5-min Rain = 0
KWA1 260821Z 21005KT 21/20 A3007 RMK A01 T02110196  RH  091%=      5-min Rain = 0
KWA1 260822Z 21005KT 21/20 A3007 RMK A01 T02110196  RH  091%=      5-min Rain = 0
KWA1 260823Z 21005KT 21/20 A3007 RMK A01 T02110197  RH  092%=      5-min Rain = 0
KWA1 260824Z 21006KT 21/20 A3007 RMK A01 T02110197  RH  092%=      5-min Rain = 0
KWA1 260825Z 21006KT 21/20 A3006 RMK A01 T02100196  RH  092%=      5-min Rain = 0
KWA1 260826Z 21006KT 21/20 A3006 RMK A01 T02100197  RH  092%=      5-min Rain = 0
KWA1 260827Z 21006KT 21/20 A3006 RMK A01 T02100197  RH  092%=      5-min Rain = 0
KWA1 260828Z 20006KT 21/20 A3006 RMK A01 T02100196  RH  092%=      5-min Rain = 0
KWA1 260829Z 20006KT 21/20 A3006 RMK A01 T02100197  RH  092%=      5-min Rain = 0
KWA1 260830Z 20006KT 21/20 A3006 RMK A01 T02100196  RH  092%=      5-min Rain = 0
KWA1 260831Z 19005KT 21/20 A3006 RMK A01 T02100197  RH  092%=      5-min Rain = 0
KWA1 260832Z 19005KT 21/20 A3006 RMK A01 T02100197  RH  092%=      5-min Rain = 0
KWA1 260833Z 18005KT 21/20 A3006 RMK A01 T02100196  RH  092%=      5-min Rain = 0
KWA1 260834Z 18005KT 21/20 A3006 RMK A01 T02100197  RH  092%=      5-min Rain = 0
KWA1 260835Z 18005KT 21/20 A3006 RMK A01 T02100197  RH  092%=      5-min Rain = 0
KWA1 260836Z 18005KT 21/20 A3006 RMK A01 T02090197  RH  092%=      5-min Rain = 0
KWA1 260837Z 18005KT 21/20 A3006 RMK A01 T02090196  RH  092%=      5-min Rain = 0
KWA1 260838Z 18005KT 21/20 A3006 RMK A01 T02090196  RH  093%=      5-min Rain = 0
KWA1 260839Z 19005KT 21/20 A3006 RMK A01 T02080196  RH  093%=      5-min Rain = 0
KWA1 260840Z 19006KT 21/20 A3006 RMK A01 T02080196  RH  093%=      5-min Rain = 0
KWA1 260841Z 19006KT 21/20 A3006 RMK A01 T02080197  RH  093%=      5-min Rain = 0
KWA1 260842Z 19005KT 21/20 A3006 RMK A01 T02080197  RH  093%=      5-min Rain = 0
KWA1 260843Z 19005KT 21/20 A3006 RMK A01 T02080197  RH  093%=      5-min Rain = 0
KWA1 260844Z 19005KT 21/20 A3006 RMK A01 T02090197  RH  093%=      5-min Rain = 0
KWA1 260845Z 19005KT 21/20 A3006 RMK A01 T02090197  RH  093%=      5-min Rain = 0
KWA1 260846Z 19005KT 21/20 A3006 RMK A01 T02090197  RH  093%=      5-min Rain = 0
KWA1 260847Z 19004KT 21/20 A3006 RMK A01 T02090196  RH  093%=      5-min Rain = 0
KWA1 260848Z 19004KT 21/20 A3006 RMK A01 T02090196  RH  092%=      5-min Rain = 0
KWA1 260849Z 20004KT 21/20 A3006 RMK A01 T02090196  RH  092%=      5-min Rain = 0
KWA1 260850Z 20004KT 21/20 A3006 RMK A01 T02090196  RH  092%=      5-min Rain = 0
KWA1 260851Z 21004KT 21/20 A3006 RMK A01 T02090196  RH  092%=      5-min Rain = 0
KWA1 260852Z 21003KT 21/20 A3006 RMK A01 T02090196  RH  092%=      5-min Rain = 0
KWA1 260853Z 21003KT 21/20 A3006 RMK A01 T02080196  RH  093%=      5-min Rain = 0
KWA1 260854Z 22003KT 21/20 A3006 RMK A01 T02080196  RH  093%=      5-min Rain = 0
KWA1 260855Z 22002KT 21/20 A3006 RMK A01 T02070195  RH  093%=      5-min Rain = 0
KWA1 260856Z 22003KT 21/20 A3006 RMK A01 T02070195  RH  093%=      5-min Rain = 0
KWA1 260857Z 22003KT 21/20 A3006 RMK A01 T02070195  RH  093%=      5-min Rain = 0
KWA1 260858Z 22003KT 21/20 A3006 RMK A01 T02070195  RH  093%=      5-min Rain = 0
KWA1 260859Z 21003KT 21/20 A3006 RMK A01 T02070195  RH  093%=      5-min Rain = 0
KWA1 260900Z 20003KT 21/19 A3006 RMK A01 T02060194  RH  093%=      5-min Rain = 0
KWA1 260901Z 20003KT 21/19 A3006 RMK A01 T02060194  RH  093%=      5-min Rain = 0
KWA1 260902Z 19003KT 21/19 A3007 RMK A01 T02060194  RH  093%=      5-min Rain = 0
KWA1 260903Z 19003KT 21/19 A3007 RMK A01 T02060194  RH  093%=      5-min Rain = 0
KWA1 260904Z 19003KT 21/19 A3007 RMK A01 T02050194  RH  093%=      5-min Rain = 0
KWA1 260905Z 19002KT 21/19 A3007 RMK A01 T02050194  RH  093%=      5-min Rain = 0
KWA1 260906Z 20002KT 21/19 A3007 RMK A01 T02050194  RH  093%=      5-min Rain = 0
KWA1 260907Z 20002KT 21/19 A3007 RMK A01 T02050194  RH  093%=      5-min Rain = 0
KWA1 260908Z 19002KT 21/19 A3007 RMK A01 T02050194  RH  093%=      5-min Rain = 0
KWA1 260909Z 19002KT 20/19 A3007 RMK A01 T02040193  RH  093%=      5-min Rain = 0
KWA1 260910Z 19001KT 20/19 A3007 RMK A01 T02040193  RH  093%=      5-min Rain = 0
KWA1 260911Z 19001KT 20/19 A3007 RMK A01 T02040194  RH  094%=      5-min Rain = 0
KWA1 260912Z 19001KT 20/19 A3007 RMK A01 T02040194  RH  094%=      5-min Rain = 0
KWA1 260913Z 17000KT 20/19 A3007 RMK A01 T02040194  RH  094%=      5-min Rain = 0
KWA1 260914Z 00000KT 20/19 A3007 RMK A01 T02040193  RH  094%=      5-min Rain = 0
KWA1 260915Z 08000KT 20/19 A3007 RMK A01 T02030193  RH  094%=      5-min Rain = 0
KWA1 260916Z 07001KT 20/19 A3007 RMK A01 T02020192  RH  094%=      5-min Rain = 0
KWA1 260917Z 07001KT 20/19 A3007 RMK A01 T02020192  RH  094%=      5-min Rain = 0
KWA1 260918Z 07001KT 20/19 A3007 RMK A01 T02020192  RH  094%=      5-min Rain = 0
KWA1 260919Z 07001KT 20/19 A3007 RMK A01 T02020192  RH  094%=      5-min Rain = 0
KWA1 260920Z 07001KT 20/19 A3007 RMK A01 T02020193  RH  095%=      5-min Rain = 0
KWA1 260921Z 08001KT 20/19 A3007 RMK A01 T02020193  RH  095%=      5-min Rain = 0
KWA1 260922Z 08001KT 20/19 A3007 RMK A01 T02020193  RH  095%=      5-min Rain = 0
KWA1 260923Z 12001KT 20/19 A3007 RMK A01 T02020194  RH  095%=      5-min Rain = 0
KWA1 260924Z 14002KT 20/19 A3006 RMK A01 T02010193  RH  095%=      5-min Rain = 0
KWA1 260925Z 15002KT 20/19 A3006 RMK A01 T02020193  RH  095%=      5-min Rain = 0
KWA1 260926Z 16003KT 20/19 A3006 RMK A01 T02020193  RH  095%=      5-min Rain = 0
KWA1 260927Z 16004KT 20/19 A3006 RMK A01 T02010192  RH  095%=      5-min Rain = 0
KWA1 260928Z 16005KT 20/19 A3006 RMK A01 T02010193  RH  095%=      5-min Rain = 0
KWA1 260929Z 17007KT 20/19 A3006 RMK A01 T02010193  RH  095%=      5-min Rain = 0
KWA1 260930Z 17008KT 20/19 A3006 RMK A01 T02010192  RH  094%=      5-min Rain = 0
KWA1 260931Z 17008KT 20/19 A3005 RMK A01 T02000191  RH  094%=      5-min Rain = 0
KWA1 260932Z 17008KT 20/19 A3005 RMK A01 T02010192  RH  095%=      5-min Rain = 0
KWA1 260933Z 17008KT 20/19 A3005 RMK A01 T02010192  RH  094%=      5-min Rain = 0
KWA1 260934Z 17008KT 20/19 A3005 RMK A01 T02020192  RH  094%=      5-min Rain = 0
KWA1 260935Z 17009KT 20/19 A3005 RMK A01 T02020192  RH  094%=      5-min Rain = 0
KWA1 260936Z 17009KT 20/19 A3005 RMK A01 T02020192  RH  094%=      5-min Rain = 0
KWA1 260937Z 17009KT 20/19 A3005 RMK A01 T02020191  RH  094%=      5-min Rain = 0
KWA1 260938Z 16009KT 20/19 A3005 RMK A01 T02030192  RH  094%=      5-min Rain = 0
KWA1 260939Z 16009KT 20/19 A3005 RMK A01 T02020191  RH  093%=      5-min Rain = 0
KWA1 260940Z 16009KT 20/19 A3005 RMK A01 T02030192  RH  093%=      5-min Rain = 0
KWA1 260941Z 17009KT 20/19 A3005 RMK A01 T02040192  RH  093%=      5-min Rain = 0
KWA1 260942Z 17009KT 20/19 A3005 RMK A01 T02040192  RH  093%=      5-min Rain = 0
KWA1 260943Z 17008KT 20/19 A3005 RMK A01 T02040192  RH  093%=      5-min Rain = 0
KWA1 260944Z 16008KT 20/19 A3005 RMK A01 T02040192  RH  092%=      5-min Rain = 0
KWA1 260945Z 16008KT 21/19 A3005 RMK A01 T02050192  RH  092%=      5-min Rain = 0
KWA1 260946Z 16007KT 20/19 A3005 RMK A01 T02040191  RH  092%=      5-min Rain = 0
KWA1 260947Z 16007KT 20/19 A3005 RMK A01 T02040192  RH  092%=      5-min Rain = 0
KWA1 260948Z 16007KT 20/19 A3005 RMK A01 T02040192  RH  092%=      5-min Rain = 0
KWA1 260949Z 16007KT 20/19 A3005 RMK A01 T02040191  RH  092%=      5-min Rain = 0
KWA1 260950Z 16006KT 20/19 A3005 RMK A01 T02040191  RH  092%=      5-min Rain = 0
KWA1 260951Z 16005KT 20/19 A3005 RMK A01 T02030191  RH  093%=      5-min Rain = 0
KWA1 260952Z 15005KT 20/19 A3005 RMK A01 T02030191  RH  093%=      5-min Rain = 0
KWA1 260953Z 16004KT 20/19 A3005 RMK A01 T02030191  RH  093%=      5-min Rain = 0
KWA1 260954Z 15003KT 20/19 A3005 RMK A01 T02020191  RH  093%=      5-min Rain = 0
KWA1 260955Z 14004KT 20/19 A3005 RMK A01 T02020191  RH  093%=      5-min Rain = 0
KWA1 260956Z 14003KT 20/19 A3005 RMK A01 T02020191  RH  093%=      5-min Rain = 0
KWA1 260957Z 14002KT 20/19 A3005 RMK A01 T02020191  RH  093%=      5-min Rain = 0
KWA1 260958Z 14003KT 20/19 A3005 RMK A01 T02020191  RH  093%=      5-min Rain = 0
KWA1 260959Z 14004KT 20/19 A3005 RMK A01 T02020191  RH  093%=      5-min Rain = 0
KWA1 261000Z 14004KT 20/19 A3005 RMK A01 T02020190  RH  093%=      5-min Rain = 0
KWA1 261001Z 15004KT 20/19 A3005 RMK A01 T02020190  RH  093%=      5-min Rain = 0
KWA1 261002Z 14004KT 20/19 A3005 RMK A01 T02020190  RH  093%=      5-min Rain = 0
KWA1 261003Z 14004KT 20/19 A3005 RMK A01 T02020190  RH  093%=      5-min Rain = 0
KWA1 261004Z 14004KT 20/19 A3005 RMK A01 T02020190  RH  093%=      5-min Rain = 0
KWA1 261005Z 14004KT 20/19 A3005 RMK A01 T02020190  RH  093%=      5-min Rain = 0
KWA1 261006Z 13004KT 20/19 A3005 RMK A01 T02020190  RH  093%=      5-min Rain = 0
KWA1 261007Z 13005KT 20/19 A3006 RMK A01 T02020190  RH  093%=      5-min Rain = 0
KWA1 261008Z 14004KT 20/19 A3006 RMK A01 T02020190  RH  093%=      5-min Rain = 0
KWA1 261009Z 15004KT 20/19 A3005 RMK A01 T02020190  RH  093%=      5-min Rain = 0
KWA1 261010Z 15004KT 20/19 A3005 RMK A01 T02020190  RH  093%=      5-min Rain = 0
KWA1 261011Z 16005KT 20/19 A3005 RMK A01 T02020190  RH  093%=      5-min Rain = 0
KWA1 261012Z 17006KT 20/19 A3005 RMK A01 T02020189  RH  092%=      5-min Rain = 0
KWA1 261013Z 17005KT 20/19 A3005 RMK A01 T02020189  RH  092%=      5-min Rain = 0
KWA1 261014Z 17006KT 20/19 A3005 RMK A01 T02020189  RH  092%=      5-min Rain = 0
KWA1 261015Z 18006KT 20/19 A3005 RMK A01 T02020189  RH  093%=      5-min Rain = 0
KWA1 261016Z 19006KT 20/19 A3005 RMK A01 T02020190  RH  093%=      5-min Rain = 0
KWA1 261017Z 20005KT 20/19 A3005 RMK A01 T02030190  RH  092%=      5-min Rain = 0
KWA1 261018Z 20005KT 20/19 A3005 RMK A01 T02030190  RH  092%=      5-min Rain = 0
KWA1 261019Z 20005KT 20/19 A3005 RMK A01 T02030190  RH  092%=      5-min Rain = 0
KWA1 261020Z 20005KT 20/19 A3005 RMK A01 T02030189  RH  092%=      5-min Rain = 0
KWA1 261021Z 20006KT 20/19 A3005 RMK A01 T02030189  RH  092%=      5-min Rain = 0
KWA1 261022Z 20005KT 20/19 A3005 RMK A01 T02030189  RH  092%=      5-min Rain = 0
KWA1 261023Z 20005KT 20/19 A3005 RMK A01 T02040190  RH  092%=      5-min Rain = 0
KWA1 261024Z 20005KT 20/19 A3005 RMK A01 T02040190  RH  092%=      5-min Rain = 0
KWA1 261025Z 20005KT 20/19 A3005 RMK A01 T02040189  RH  091%=      5-min Rain = 0
KWA1 261026Z 20005KT 20/19 A3005 RMK A01 T02040189  RH  091%=      5-min Rain = 0
KWA1 261027Z 20005KT 20/19 A3005 RMK A01 T02040190  RH  092%=      5-min Rain = 0
KWA1 261028Z 20005KT 20/19 A3005 RMK A01 T02040190  RH  092%=      5-min Rain = 0
KWA1 261029Z 20005KT 20/19 A3005 RMK A01 T02040190  RH  092%=      5-min Rain = 0
KWA1 261030Z 19005KT 20/19 A3005 RMK A01 T02040190  RH  092%=      5-min Rain = 0
KWA1 261031Z 18005KT 20/19 A3005 RMK A01 T02040190  RH  092%=      5-min Rain = 0
KWA1 261032Z 18005KT 20/19 A3005 RMK A01 T02030189  RH  092%=      5-min Rain = 0
KWA1 261033Z 18005KT 20/19 A3005 RMK A01 T02030190  RH  092%=      5-min Rain = 0
KWA1 261034Z 19005KT 20/19 A3005 RMK A01 T02030190  RH  092%=      5-min Rain = 0
KWA1 261035Z 20004KT 20/19 A3005 RMK A01 T02030190  RH  092%=      5-min Rain = 0
KWA1 261036Z 18004KT 20/19 A3005 RMK A01 T02030190  RH  092%=      5-min Rain = 0
KWA1 261037Z 20003KT 20/19 A3005 RMK A01 T02040190  RH  092%=      5-min Rain = 0
KWA1 261038Z 19003KT 20/19 A3006 RMK A01 T02030190  RH  092%=      5-min Rain = 0
KWA1 261039Z 18002KT 20/19 A3006 RMK A01 T02040190  RH  092%=      5-min Rain = 0
KWA1 261040Z 19002KT 20/19 A3006 RMK A01 T02040190  RH  092%=      5-min Rain = 0
KWA1 261041Z 20002KT 20/19 A3006 RMK A01 T02030190  RH  092%=      5-min Rain = 0
KWA1 261042Z 21003KT 20/19 A3006 RMK A01 T02030190  RH  092%=      5-min Rain = 0
KWA1 261043Z 21003KT 20/19 A3006 RMK A01 T02040190  RH  092%=      5-min Rain = 0
KWA1 261044Z 21003KT 20/19 A3006 RMK A01 T02040190  RH  091%=      5-min Rain = 0
KWA1 261045Z 21003KT 20/19 A3006 RMK A01 T02040190  RH  091%=      5-min Rain = 0
KWA1 261046Z 21002KT 20/19 A3006 RMK A01 T02040190  RH  091%=      5-min Rain = 0
KWA1 261047Z 19003KT 20/19 A3006 RMK A01 T02040190  RH  091%=      5-min Rain = 0
KWA1 261048Z 20004KT 21/19 A3006 RMK A01 T02050190  RH  091%=      5-min Rain = 0
KWA1 261049Z 19004KT 21/19 A3006 RMK A01 T02050190  RH  091%=      5-min Rain = 0
KWA1 261050Z 21003KT 21/19 A3006 RMK A01 T02050190  RH  091%=      5-min Rain = 0
KWA1 261051Z 20003KT 21/19 A3006 RMK A01 T02050190  RH  091%=      5-min Rain = 0
KWA1 261052Z 20003KT 21/19 A3006 RMK A01 T02050190  RH  091%=      5-min Rain = 0
KWA1 261053Z 19003KT 21/19 A3006 RMK A01 T02050190  RH  091%=      5-min Rain = 0
KWA1 261054Z 17003KT 21/19 A3006 RMK A01 T02050189  RH  091%=      5-min Rain = 0
KWA1 261055Z 17004KT 20/19 A3006 RMK A01 T02040189  RH  091%=      5-min Rain = 0
KWA1 261056Z 18003KT 20/19 A3006 RMK A01 T02030189  RH  091%=      5-min Rain = 0
KWA1 261057Z 18004KT 20/19 A3006 RMK A01 T02030189  RH  092%=      5-min Rain = 0
KWA1 261058Z 17005KT 20/19 A3006 RMK A01 T02020189  RH  092%=      5-min Rain = 0
KWA1 261059Z 18004KT 20/19 A3006 RMK A01 T02020189  RH  092%=      5-min Rain = 0
KWA1 261100Z 19004KT 20/19 A3006 RMK A01 T02020189  RH  092%=      5-min Rain = 0
KWA1 261101Z 19004KT 20/19 A3006 RMK A01 T02020189  RH  092%=      5-min Rain = 0
KWA1 261102Z 19004KT 20/19 A3006 RMK A01 T02020190  RH  092%=      5-min Rain = 0
KWA1 261103Z 19004KT 20/19 A3006 RMK A01 T02020189  RH  092%=      5-min Rain = 0
KWA1 261104Z 19004KT 20/19 A3006 RMK A01 T02020189  RH  092%=      5-min Rain = 0
KWA1 261105Z 19004KT 20/19 A3006 RMK A01 T02030189  RH  092%=      5-min Rain = 0
KWA1 261106Z 20004KT 20/19 A3006 RMK A01 T02030189  RH  092%=      5-min Rain = 0
KWA1 261107Z 20005KT 20/19 A3006 RMK A01 T02030189  RH  092%=      5-min Rain = 0
KWA1 261108Z 19005KT 20/19 A3006 RMK A01 T02020189  RH  092%=      5-min Rain = 0
KWA1 261109Z 18005KT 20/19 A3006 RMK A01 T02020189  RH  092%=      5-min Rain = 0
KWA1 261110Z 18004KT 20/19 A3006 RMK A01 T02030189  RH  092%=      5-min Rain = 0
KWA1 261111Z 18005KT 20/19 A3006 RMK A01 T02020189  RH  092%=      5-min Rain = 0
KWA1 261112Z 18005KT 20/19 A3006 RMK A01 T02020190  RH  093%=      5-min Rain = 0
KWA1 261113Z 18005KT 20/19 A3006 RMK A01 T02030190  RH  092%=      5-min Rain = 0
KWA1 261114Z 18005KT 20/19 A3006 RMK A01 T02030190  RH  092%=      5-min Rain = 0
KWA1 261115Z 19005KT 20/19 A3006 RMK A01 T02030190  RH  092%=      5-min Rain = 0
KWA1 261116Z 19005KT 20/19 A3006 RMK A01 T02030190  RH  092%=      5-min Rain = 0
KWA1 261117Z 19004KT 20/19 A3006 RMK A01 T02030190  RH  092%=      5-min Rain = 0
KWA1 261118Z 20004KT 20/19 A3006 RMK A01 T02030190  RH  092%=      5-min Rain = 0
KWA1 261119Z 20004KT 20/19 A3006 RMK A01 T02030189  RH  092%=      5-min Rain = 0
KWA1 261120Z 21005KT 20/19 A3006 RMK A01 T02020189  RH  092%=      5-min Rain = 0
KWA1 261121Z 21005KT 20/19 A3006 RMK A01 T02020189  RH  092%=      5-min Rain = 0
KWA1 261122Z 21005KT 20/19 A3006 RMK A01 T02010189  RH  092%=      5-min Rain = 0
KWA1 261123Z 21005KT 20/19 A3006 RMK A01 T02010189  RH  092%=      5-min Rain = 0
KWA1 261124Z 21005KT 20/19 A3006 RMK A01 T02020189  RH  092%=      5-min Rain = 0
KWA1 261125Z 21005KT 20/19 A3006 RMK A01 T02010189  RH  092%=      5-min Rain = 0
KWA1 261126Z 21005KT 20/19 A3006 RMK A01 T02010188  RH  093%=      5-min Rain = 0
KWA1 261127Z 21005KT 20/19 A3005 RMK A01 T02000188  RH  093%=      5-min Rain = 0
KWA1 261128Z 21005KT 20/19 A3005 RMK A01 T01990187  RH  093%=      5-min Rain = 0
KWA1 261129Z 20005KT 20/19 A3005 RMK A01 T01990187  RH  093%=      5-min Rain = 0
KWA1 261130Z 21005KT 20/19 A3005 RMK A01 T01980187  RH  093%=      5-min Rain = 0
KWA1 261131Z 21005KT 20/19 A3005 RMK A01 T01980188  RH  094%=      5-min Rain = 0
KWA1 261132Z 22004KT 20/19 A3005 RMK A01 T01980188  RH  094%=      5-min Rain = 0
KWA1 261133Z 22004KT 20/19 A3005 RMK A01 T01970187  RH  094%=      5-min Rain = 0
KWA1 261134Z 22004KT 20/19 A3005 RMK A01 T01970187  RH  094%=      5-min Rain = 0
KWA1 261135Z 22005KT 20/19 A3006 RMK A01 T01970187  RH  094%=      5-min Rain = 0
KWA1 261136Z 22005KT 20/19 A3006 RMK A01 T01970187  RH  094%=      5-min Rain = 0
KWA1 261137Z 22004KT 20/19 A3006 RMK A01 T01970188  RH  095%=      5-min Rain = 0
KWA1 261138Z 21004KT 20/19 A3006 RMK A01 T01970188  RH  094%=      5-min Rain = 0
KWA1 261139Z 21004KT 20/19 A3006 RMK A01 T01980188  RH  094%=      5-min Rain = 0
KWA1 261140Z 21004KT 20/19 A3006 RMK A01 T01980188  RH  094%=      5-min Rain = 0
KWA1 261141Z 20005KT 20/19 A3006 RMK A01 T01980188  RH  094%=      5-min Rain = 0
KWA1 261142Z 20005KT 20/19 A3006 RMK A01 T01980188  RH  094%=      5-min Rain = 0
KWA1 261143Z 20005KT 20/19 A3006 RMK A01 T01980188  RH  094%=      5-min Rain = 0
KWA1 261144Z 19005KT 20/19 A3006 RMK A01 T01980188  RH  094%=      5-min Rain = 0
KWA1 261145Z 19005KT 20/19 A3006 RMK A01 T01980187  RH  094%=      5-min Rain = 0
KWA1 261146Z 19005KT 20/19 A3006 RMK A01 T01980187  RH  094%=      5-min Rain = 0
KWA1 261147Z 19005KT 20/19 A3006 RMK A01 T01980187  RH  094%=      5-min Rain = 0
KWA1 261148Z 19005KT 20/19 A3006 RMK A01 T01970187  RH  094%=      5-min Rain = 0
KWA1 261149Z 19005KT 20/19 A3006 RMK A01 T01970188  RH  094%=      5-min Rain = 0
KWA1 261150Z 19004KT 20/19 A3007 RMK A01 T01980188  RH  094%=      5-min Rain = 0
KWA1 261151Z 19004KT 20/19 A3007 RMK A01 T01980188  RH  094%=      5-min Rain = 0
KWA1 261152Z 19003KT 20/19 A3007 RMK A01 T01980187  RH  093%=      5-min Rain = 0
KWA1 261153Z 20003KT 20/19 A3007 RMK A01 T01980187  RH  093%=      5-min Rain = 0
KWA1 261154Z 20003KT 20/19 A3007 RMK A01 T01980187  RH  094%=      5-min Rain = 0
KWA1 261155Z 21003KT 20/19 A3007 RMK A01 T01970187  RH  094%=      5-min Rain = 0
KWA1 261156Z 21003KT 20/19 A3007 RMK A01 T01980187  RH  094%=      5-min Rain = 0
KWA1 261157Z 20004KT 20/19 A3007 RMK A01 T01980188  RH  094%=      5-min Rain = 0
KWA1 261158Z 20005KT 20/19 A3007 RMK A01 T01980188  RH  094%=      5-min Rain = 0
KWA1 261159Z 20005KT 20/19 A3007 RMK A01 T01990189  RH  094%=      5-min Rain = 0
KWA1 261200Z 19005KT 20/19 A3007 RMK A01 T02000189  RH  093%=      5-min Rain = 0
KWA1 261201Z 19005KT 20/19 A3007 RMK A01 T02000189  RH  093%=      5-min Rain = 0
KWA1 261202Z 18004KT 20/19 A3007 RMK A01 T02010189  RH  093%=      5-min Rain = 0
KWA1 261203Z 18004KT 20/19 A3007 RMK A01 T02010189  RH  093%=      5-min Rain = 0
KWA1 261204Z 18004KT 20/19 A3007 RMK A01 T02010189  RH  093%=      5-min Rain = 0
KWA1 261205Z 18005KT 20/19 A3007 RMK A01 T02010189  RH  093%=      5-min Rain = 0
KWA1 261206Z 18004KT 20/19 A3007 RMK A01 T02010189  RH  093%=      5-min Rain = 0
KWA1 261207Z 19004KT 20/19 A3007 RMK A01 T02020189  RH  093%=      5-min Rain = 0
KWA1 261208Z 19004KT 20/19 A3007 RMK A01 T02020189  RH  093%=      5-min Rain = 0
KWA1 261209Z 19004KT 20/19 A3007 RMK A01 T02020190  RH  093%=      5-min Rain = 0
KWA1 261210Z 18005KT 20/19 A3007 RMK A01 T02020190  RH  093%=      5-min Rain = 0
KWA1 261211Z 18004KT 20/19 A3007 RMK A01 T02030190  RH  093%=      5-min Rain = 0
KWA1 261212Z 18004KT 20/19 A3007 RMK A01 T02030190  RH  093%=      5-min Rain = 0
KWA1 261213Z 18004KT 20/19 A3007 RMK A01 T02030190  RH  092%=      5-min Rain = 0
KWA1 261214Z 17003KT 20/19 A3008 RMK A01 T02020190  RH  093%=      5-min Rain = 0
KWA1 261215Z 17004KT 20/19 A3008 RMK A01 T02030190  RH  093%=      5-min Rain = 0
KWA1 261216Z 17003KT 20/19 A3008 RMK A01 T02030190  RH  093%=      5-min Rain = 0
KWA1 261217Z 18003KT 20/19 A3008 RMK A01 T02030191  RH  093%=      5-min Rain = 0
KWA1 261218Z 18003KT 20/19 A3008 RMK A01 T02030192  RH  093%=      5-min Rain = 0
KWA1 261219Z 18003KT 20/19 A3008 RMK A01 T02040191  RH  093%=      5-min Rain = 0
KWA1 261220Z 18004KT 20/19 A3008 RMK A01 T02040192  RH  092%=      5-min Rain = 0
KWA1 261221Z 19003KT 21/19 A3008 RMK A01 T02050192  RH  092%=      5-min Rain = 0
KWA1 261222Z 20003KT 21/19 A3008 RMK A01 T02060193  RH  092%=      5-min Rain = 0
KWA1 261223Z 20003KT 21/19 A3008 RMK A01 T02060193  RH  092%=      5-min Rain = 0
KWA1 261224Z 19003KT 21/19 A3009 RMK A01 T02070194  RH  092%=      5-min Rain = 0
KWA1 261225Z 20003KT 21/19 A3009 RMK A01 T02070194  RH  092%=      5-min Rain = 0
KWA1 261226Z 21003KT 21/19 A3009 RMK A01 T02080193  RH  092%=      5-min Rain = 0
KWA1 261227Z 20002KT 21/19 A3009 RMK A01 T02080194  RH  092%=      5-min Rain = 0
KWA1 261228Z 18002KT 21/19 A3009 RMK A01 T02080194  RH  092%=      5-min Rain = 0
KWA1 261229Z 19002KT 21/19 A3009 RMK A01 T02080194  RH  092%=      5-min Rain = 0
KWA1 261230Z 18003KT 21/19 A3009 RMK A01 T02080194  RH  091%=      5-min Rain = 0
KWA1 261231Z 20003KT 21/20 A3009 RMK A01 T02080195  RH  092%=      5-min Rain = 0
KWA1 261232Z 21002KT 21/20 A3009 RMK A01 T02090195  RH  092%=      5-min Rain = 0
KWA1 261233Z 20003KT 21/20 A3009 RMK A01 T02090195  RH  092%=      5-min Rain = 0
KWA1 261234Z 20003KT 21/19 A3009 RMK A01 T02090194  RH  091%=      5-min Rain = 0
KWA1 261235Z 18003KT 21/19 A3009 RMK A01 T02090194  RH  091%=      5-min Rain = 0
KWA1 261236Z 20003KT 21/19 A301 RMK A01 T02090194  RH  091%=      5-min Rain = 0
KWA1 261237Z 19004KT 21/20 A301 RMK A01 T02100195  RH  091%=      5-min Rain = 0
KWA1 261238Z 19004KT 21/20 A301 RMK A01 T02100195  RH  091%=      5-min Rain = 0
KWA1 261239Z 19004KT 21/20 A301 RMK A01 T02100195  RH  091%=      5-min Rain = 0
KWA1 261240Z 19005KT 21/19 A301 RMK A01 T02100194  RH  091%=      5-min Rain = 0
KWA1 261241Z 20005KT 21/19 A301 RMK A01 T02100194  RH  090%=      5-min Rain = 0
KWA1 261242Z 20004KT 21/19 A301 RMK A01 T02110194  RH  090%=      5-min Rain = 0
KWA1 261243Z 22006KT 21/20 A301 RMK A01 T02110195  RH  090%=      5-min Rain = 0
KWA1 261244Z 18006KT 21/19 A301 RMK A01 T02110194  RH  090%=      5-min Rain = 0
KWA1 261245Z 19005KT 21/20 A301 RMK A01 T02110196  RH  091%=      5-min Rain = 0
KWA1 261246Z 19006KT 21/20 A301 RMK A01 T02120196  RH  091%=      5-min Rain = 0
KWA1 261247Z 20006KT 21/20 A301 RMK A01 T02120195  RH  090%=      5-min Rain = 0
KWA1 261248Z 19005KT 21/20 A301 RMK A01 T02120195  RH  090%=      5-min Rain = 0
KWA1 261249Z 19005KT 21/20 A301 RMK A01 T02120195  RH  090%=      5-min Rain = 0
KWA1 261250Z 18006KT 21/20 A301 RMK A01 T02120196  RH  090%=      5-min Rain = 0
KWA1 261251Z 18007KT 21/20 A301 RMK A01 T02120196  RH  090%=      5-min Rain = 0
KWA1 261252Z 18007KT 21/20 A301 RMK A01 T02130196  RH  090%=      5-min Rain = 0
KWA1 261253Z 19008KT 21/20 A301 RMK A01 T02130196  RH  090%=      5-min Rain = 0
KWA1 261254Z 19007KT 21/20 A301 RMK A01 T02130195  RH  089%=      5-min Rain = 0
KWA1 261255Z 18006KT 21/20 A301 RMK A01 T02140197  RH  090%=      5-min Rain = 0
KWA1 261256Z 18007KT 21/20 A301 RMK A01 T02140198  RH  090%=      5-min Rain = 0
KWA1 261257Z 18007KT 21/20 A301 RMK A01 T02140197  RH  090%=      5-min Rain = 0
KWA1 261258Z 18007KT 21/20 A301 RMK A01 T02140198  RH  090%=      5-min Rain = 0
KWA1 261259Z 18007KT 21/20 A301 RMK A01 T02140197  RH  090%=      5-min Rain = 0
KWA1 261300Z 18008KT 21/20 A301 RMK A01 T02140197  RH  090%=      5-min Rain = 0
KWA1 261301Z 18007KT 22/20 A301 RMK A01 T02150198  RH  090%=      5-min Rain = 0
KWA1 261302Z 18006KT 22/20 A301 RMK A01 T02150198  RH  090%=      5-min Rain = 0
KWA1 261303Z 18007KT 22/20 A3011 RMK A01 T02150199  RH  090%=      5-min Rain = 0
KWA1 261304Z 18007KT 22/20 A3011 RMK A01 T02150198  RH  090%=      5-min Rain = 0
KWA1 261305Z 17007KT 22/20 A3011 RMK A01 T02150199  RH  090%=      5-min Rain = 0
KWA1 261306Z 17006KT 22/20 A3011 RMK A01 T02160199  RH  090%=      5-min Rain = 0
KWA1 261307Z 18007KT 22/20 A3011 RMK A01 T02160198  RH  090%=      5-min Rain = 0
KWA1 261308Z 18006KT 22/20 A3011 RMK A01 T02160198  RH  090%=      5-min Rain = 0
KWA1 261309Z 18008KT 22/20 A3011 RMK A01 T02160198  RH  090%=      5-min Rain = 0
KWA1 261310Z 17006KT 22/20 A3011 RMK A01 T02160198  RH  089%=      5-min Rain = 0
KWA1 261311Z 18005KT 22/20 A3011 RMK A01 T02160198  RH  089%=      5-min Rain = 0
KWA1 261312Z 18007KT 22/20 A3011 RMK A01 T02160198  RH  090%=      5-min Rain = 0
KWA1 261313Z 18007KT 22/20 A3011 RMK A01 T02170198  RH  089%=      5-min Rain = 0
KWA1 261314Z 18006KT 22/20 A3011 RMK A01 T02170198  RH  089%=      5-min Rain = 0
KWA1 261315Z 19005KT 22/20 A3011 RMK A01 T02170199  RH  089%=      5-min Rain = 0
KWA1 261316Z 19007KT 22/20 A3011 RMK A01 T02170199  RH  089%=      5-min Rain = 0
KWA1 261317Z 18006KT 22/20 A3011 RMK A01 T02170198  RH  089%=      5-min Rain = 0
KWA1 261318Z 18006KT 22/20 A3012 RMK A01 T02170198  RH  089%=      5-min Rain = 0
KWA1 261319Z 18007KT 22/20 A3012 RMK A01 T02180198  RH  089%=      5-min Rain = 0
KWA1 261320Z 18008KT 22/20 A3012 RMK A01 T02180198  RH  089%=      5-min Rain = 0
KWA1 261321Z 19008KT 22/20 A3012 RMK A01 T02180198  RH  088%=      5-min Rain = 0
KWA1 261322Z 19008KT 22/20 A3012 RMK A01 T02180197  RH  088%=      5-min Rain = 0
KWA1 261323Z 19008KT 22/20 A3012 RMK A01 T02190198  RH  088%=      5-min Rain = 0
KWA1 261324Z 19008KT 22/20 A3012 RMK A01 T02190198  RH  088%=      5-min Rain = 0
KWA1 261325Z 18007KT 22/20 A3012 RMK A01 T02200199  RH  088%=      5-min Rain = 0
KWA1 261326Z 18007KT 22/20 A3012 RMK A01 T02200198  RH  088%=      5-min Rain = 0
KWA1 261327Z 18007KT 22/20 A3012 RMK A01 T02200198  RH  088%=      5-min Rain = 0
KWA1 261328Z 19006KT 22/20 A3012 RMK A01 T02200199  RH  088%=      5-min Rain = 0
KWA1 261329Z 19005KT 22/20 A3012 RMK A01 T02200200  RH  088%=      5-min Rain = 0
KWA1 261330Z 19006KT 22/20 A3012 RMK A01 T02210199  RH  088%=      5-min Rain = 0
KWA1 261331Z 18007KT 22/20 A3012 RMK A01 T02200199  RH  088%=      5-min Rain = 0
KWA1 261332Z 18007KT 22/20 A3012 RMK A01 T02210200  RH  088%=      5-min Rain = 0
KWA1 261333Z 17008KT 22/20 A3012 RMK A01 T02210200  RH  088%=      5-min Rain = 0
KWA1 261334Z 18007KT 22/20 A3012 RMK A01 T02210198  RH  087%=      5-min Rain = 0
KWA1 261335Z 18009KT 22/20 A3012 RMK A01 T02210200  RH  087%=      5-min Rain = 0
KWA1 261336Z 18007KT 22/20 A3012 RMK A01 T02220200  RH  087%=      5-min Rain = 0
KWA1 261337Z 18007KT 22/20 A3012 RMK A01 T02220200  RH  087%=      5-min Rain = 0
KWA1 261338Z 18005KT 22/20 A3012 RMK A01 T02220200  RH  087%=      5-min Rain = 0
KWA1 261339Z 18006KT 22/20 A3012 RMK A01 T02220201  RH  088%=      5-min Rain = 0
KWA1 261340Z 18007KT 22/20 A3012 RMK A01 T02220200  RH  087%=      5-min Rain = 0
KWA1 261341Z 19007KT 22/20 A3012 RMK A01 T02220200  RH  087%=      5-min Rain = 0
KWA1 261342Z 18006KT 22/20 A3012 RMK A01 T02220200  RH  087%=      5-min Rain = 0
KWA1 261343Z 19005KT 22/20 A3012 RMK A01 T02230200  RH  087%=      5-min Rain = 0
KWA1 261344Z 20006KT 22/20 A3012 RMK A01 T02230201  RH  087%=      5-min Rain = 0
KWA1 261345Z 18005KT 22/20 A3012 RMK A01 T02240200  RH  086%=      5-min Rain = 0
KWA1 261346Z 18005KT 22/20 A3012 RMK A01 T02230200  RH  087%=      5-min Rain = 0
KWA1 261347Z 19006KT 22/20 A3012 RMK A01 T02240200  RH  086%=      5-min Rain = 0
KWA1 261348Z 20007KT 22/20 A3012 RMK A01 T02230199  RH  086%=      5-min Rain = 0
KWA1 261349Z 20007KT 22/20 A3013 RMK A01 T02240198  RH  085%=      5-min Rain = 0
KWA1 261350Z 18007KT 22/20 A3013 RMK A01 T02240200  RH  086%=      5-min Rain = 0
KWA1 261351Z 19006KT 23/20 A3013 RMK A01 T02250199  RH  085%=      5-min Rain = 0
KWA1 261352Z 18007KT 22/20 A3013 RMK A01 T02240200  RH  086%=      5-min Rain = 0
KWA1 261353Z 18008KT 23/20 A3013 RMK A01 T02250199  RH  085%=      5-min Rain = 0
KWA1 261354Z 18007KT 23/20 A3013 RMK A01 T02250200  RH  085%=      5-min Rain = 0
KWA1 261355Z 18007KT 23/20 A3013 RMK A01 T02250200  RH  085%=      5-min Rain = 0
KWA1 261356Z 18007KT 23/20 A3013 RMK A01 T02260201  RH  086%=      5-min Rain = 0
KWA1 261357Z 19007KT 23/20 A3013 RMK A01 T02260201  RH  086%=      5-min Rain = 0
KWA1 261358Z 20006KT 23/20 A3013 RMK A01 T02260200  RH  085%=      5-min Rain = 0
KWA1 261359Z 18005KT 23/20 A3013 RMK A01 T02270202  RH  086%=      5-min Rain = 0
KWA1 261400Z 19007KT 23/20 A3013 RMK A01 T02270202  RH  085%=      5-min Rain = 0
KWA1 261401Z 19007KT 23/20 A3013 RMK A01 T02270199  RH  084%=      5-min Rain = 0
KWA1 261402Z 20006KT 23/20 A3013 RMK A01 T02270199  RH  084%=      5-min Rain = 0
KWA1 261403Z 19005KT 23/20 A3014 RMK A01 T02270201  RH  085%=      5-min Rain = 0
KWA1 261404Z 21006KT 23/20 A3014 RMK A01 T02280202  RH  085%=      5-min Rain = 0
KWA1 261405Z 20006KT 23/20 A3014 RMK A01 T02280199  RH  084%=      5-min Rain = 0
KWA1 261406Z 18005KT 23/20 A3014 RMK A01 T02280200  RH  084%=      5-min Rain = 0
KWA1 261407Z 19006KT 23/20 A3014 RMK A01 T02280202  RH  085%=      5-min Rain = 0
KWA1 261408Z 20007KT 23/20 A3014 RMK A01 T02290199  RH  083%=      5-min Rain = 0
KWA1 261409Z 20008KT 23/20 A3014 RMK A01 T02290200  RH  084%=      5-min Rain = 0
KWA1 261410Z 18007KT 23/20 A3014 RMK A01 T02290200  RH  084%=      5-min Rain = 0
KWA1 261411Z 18005KT 23/20 A3014 RMK A01 T02290201  RH  084%=      5-min Rain = 0
KWA1 261412Z 18007KT 23/20 A3014 RMK A01 T02290202  RH  085%=      5-min Rain = 0
KWA1 261413Z 19006KT 23/20 A3014 RMK A01 T02290199  RH  084%=      5-min Rain = 0
KWA1 261414Z 20005KT 23/20 A3014 RMK A01 T02290199  RH  084%=      5-min Rain = 0
KWA1 261415Z 19005KT 23/20 A3014 RMK A01 T02290201  RH  084%=      5-min Rain = 0
KWA1 261416Z 20006KT 23/20 A3014 RMK A01 T02290200  RH  083%=      5-min Rain = 0
KWA1 261417Z 20005KT 23/20 A3014 RMK A01 T02290200  RH  083%=      5-min Rain = 0
KWA1 261418Z 20006KT 23/20 A3014 RMK A01 T02290200  RH  084%=      5-min Rain = 0
KWA1 261419Z 20007KT 23/20 A3014 RMK A01 T02290201  RH  084%=      5-min Rain = 0
KWA1 261420Z 21008KT 23/20 A3014 RMK A01 T02290199  RH  083%=      5-min Rain = 0
KWA1 261421Z 21007KT 23/20 A3014 RMK A01 T02290198  RH  082%=      5-min Rain = 0
KWA1 261422Z 21008KT 23/20 A3014 RMK A01 T02290199  RH  083%=      5-min Rain = 0
KWA1 261423Z 20009KT 23/20 A3014 RMK A01 T02290200  RH  083%=      5-min Rain = 0
KWA1 261424Z 19008KT 23/20 A3014 RMK A01 T02290201  RH  084%=      5-min Rain = 0
KWA1 261425Z 19007KT 23/20 A3014 RMK A01 T02290200  RH  083%=      5-min Rain = 0
KWA1 261426Z 19006KT 23/20 A3015 RMK A01 T02300199  RH  083%=      5-min Rain = 0
KWA1 261427Z 20009KT 23/20 A3015 RMK A01 T02290199  RH  083%=      5-min Rain = 0
KWA1 261428Z 19010KT 23/20 A3015 RMK A01 T02290199  RH  083%=      5-min Rain = 0
KWA1 261429Z 18007KT 23/20 A3015 RMK A01 T02300198  RH  082%=      5-min Rain = 0
KWA1 261430Z 19006KT 23/20 A3015 RMK A01 T02290200  RH  083%=      5-min Rain = 0
KWA1 261431Z 19006KT 23/20 A3015 RMK A01 T02300201  RH  084%=      5-min Rain = 0
KWA1 261432Z 18007KT 23/20 A3015 RMK A01 T02300201  RH  084%=      5-min Rain = 0
KWA1 261433Z 18008KT 23/20 A3015 RMK A01 T02310202  RH  084%=      5-min Rain = 0
KWA1 261434Z 17009KT 23/20 A3015 RMK A01 T02310201  RH  084%=      5-min Rain = 0
KWA1 261435Z 18010KT 23/20 A3015 RMK A01 T02300200  RH  083%=      5-min Rain = 0
KWA1 261436Z 18008KT 23/20 A3015 RMK A01 T02300199  RH  082%=      5-min Rain = 0
KWA1 261437Z 18007KT 23/20 A3015 RMK A01 T02300200  RH  083%=      5-min Rain = 0
KWA1 261438Z 18008KT 23/20 A3015 RMK A01 T02300200  RH  083%=      5-min Rain = 0
KWA1 261439Z 18008KT 23/20 A3015 RMK A01 T02300199  RH  083%=      5-min Rain = 0
KWA1 261440Z 18008KT 23/20 A3015 RMK A01 T02310200  RH  083%=      5-min Rain = 0
KWA1 261441Z 18008KT 23/20 A3015 RMK A01 T02310200  RH  083%=      5-min Rain = 0
KWA1 261442Z 18007KT 23/20 A3015 RMK A01 T02300201  RH  083%=      5-min Rain = 0
KWA1 261443Z 20007KT 23/20 A3015 RMK A01 T02310201  RH  083%=      5-min Rain = 0
KWA1 261444Z 19007KT 23/20 A3015 RMK A01 T02310201  RH  083%=      5-min Rain = 0
KWA1 261445Z 20009KT 23/20 A3015 RMK A01 T02320202  RH  083%=      5-min Rain = 0
KWA1 261446Z 18009KT 23/20 A3015 RMK A01 T02310200  RH  082%=      5-min Rain = 0
KWA1 261447Z 19010KT 23/20 A3016 RMK A01 T02310200  RH  083%=      5-min Rain = 0
KWA1 261448Z 19009KT 23/20 A3016 RMK A01 T02310200  RH  083%=      5-min Rain = 0
KWA1 261449Z 18007KT 23/20 A3016 RMK A01 T02310200  RH  083%=      5-min Rain = 0
KWA1 261450Z 18008KT 23/20 A3016 RMK A01 T02310202  RH  084%=      5-min Rain = 0
KWA1 261451Z 19007KT 23/20 A3016 RMK A01 T02310202  RH  084%=      5-min Rain = 0
KWA1 261452Z 19009KT 23/20 A3016 RMK A01 T02310200  RH  083%=      5-min Rain = 0
KWA1 261453Z 19009KT 23/20 A3016 RMK A01 T02310201  RH  083%=      5-min Rain = 0
KWA1 261454Z 19007KT 23/20 A3016 RMK A01 T02310201  RH  083%=      5-min Rain = 0
KWA1 261455Z 18007KT 23/20 A3016 RMK A01 T02310202  RH  084%=      5-min Rain = 0
KWA1 261456Z 19007KT 23/20 A3016 RMK A01 T02310201  RH  083%=      5-min Rain = 0
KWA1 261457Z 19009KT 23/20 A3016 RMK A01 T02320201  RH  083%=      5-min Rain = 0
KWA1 261458Z 19009KT 23/20 A3016 RMK A01 T02320201  RH  083%=      5-min Rain = 0
KWA1 261459Z 20007KT 23/20 A3016 RMK A01 T02320202  RH  083%=      5-min Rain = 0
KWA1 261500Z 20008KT 23/20 A3016 RMK A01 T02320203  RH  084%=      5-min Rain = 0
KWA1 261501Z 19009KT 23/20 A3016 RMK A01 T02320201  RH  083%=      5-min Rain = 0
KWA1 261502Z 19007KT 23/20 A3016 RMK A01 T02320202  RH  083%=      5-min Rain = 0
KWA1 261503Z 19007KT 23/20 A3016 RMK A01 T02330203  RH  083%=      5-min Rain = 0
KWA1 261504Z 19007KT 23/20 A3016 RMK A01 T02330202  RH  083%=      5-min Rain = 0
KWA1 261505Z 20006KT 23/20 A3016 RMK A01 T02330203  RH  083%=      5-min Rain = 0
KWA1 261506Z 21008KT 23/20 A3016 RMK A01 T02340203  RH  083%=      5-min Rain = 0
KWA1 261507Z 21008KT 23/20 A3016 RMK A01 T02330203  RH  083%=      5-min Rain = 0
KWA1 261508Z 20007KT 23/20 A3016 RMK A01 T02340203  RH  083%=      5-min Rain = 0
KWA1 261509Z 21006KT 23/21 A3016 RMK A01 T02340205  RH  083%=      5-min Rain = 0
KWA1 261510Z 22007KT 24/20 A3016 RMK A01 T02350203  RH  083%=      5-min Rain = 0
KWA1 261511Z 22007KT 24/20 A3016 RMK A01 T02350202  RH  082%=      5-min Rain = 0
KWA1 261512Z 22006KT 23/20 A3016 RMK A01 T02340203  RH  082%=      5-min Rain = 0
KWA1 261513Z 21005KT 24/20 A3016 RMK A01 T02350203  RH  082%=      5-min Rain = 0
KWA1 261514Z 20006KT 24/20 A3016 RMK A01 T02350204  RH  083%=      5-min Rain = 0
KWA1 261515Z 20007KT 24/20 A3016 RMK A01 T02350203  RH  082%=      5-min Rain = 0
KWA1 261516Z 21007KT 24/20 A3016 RMK A01 T02350202  RH  082%=      5-min Rain = 0
KWA1 261517Z 20007KT 24/20 A3016 RMK A01 T02350203  RH  082%=      5-min Rain = 0
KWA1 261518Z 20008KT 24/20 A3016 RMK A01 T02360202  RH  081%=      5-min Rain = 0
KWA1 261519Z 21008KT 24/20 A3016 RMK A01 T02350202  RH  082%=      5-min Rain = 0
KWA1 261520Z 20008KT 24/20 A3016 RMK A01 T02350202  RH  082%=      5-min Rain = 0
KWA1 261521Z 20008KT 24/20 A3016 RMK A01 T02360203  RH  082%=      5-min Rain = 0
KWA1 261522Z 20006KT 24/20 A3016 RMK A01 T02360203  RH  082%=      5-min Rain = 0
KWA1 261523Z 19007KT 24/20 A3016 RMK A01 T02360203  RH  082%=      5-min Rain = 0
KWA1 261524Z 19007KT 24/20 A3016 RMK A01 T02360203  RH  082%=      5-min Rain = 0
KWA1 261525Z 19007KT 24/20 A3016 RMK A01 T02360203  RH  082%=      5-min Rain = 0
KWA1 261526Z 20006KT 24/20 A3016 RMK A01 T02360204  RH  082%=      5-min Rain = 0
KWA1 261527Z 19006KT 24/20 A3016 RMK A01 T02370204  RH  082%=      5-min Rain = 0
KWA1 261528Z 17007KT 24/20 A3016 RMK A01 T02370204  RH  082%=      5-min Rain = 0
KWA1 261529Z 18006KT 24/20 A3016 RMK A01 T02370204  RH  082%=      5-min Rain = 0
KWA1 261530Z 19005KT 24/20 A3016 RMK A01 T02370203  RH  081%=      5-min Rain = 0
KWA1 261531Z 17004KT 24/20 A3016 RMK A01 T02370204  RH  082%=      5-min Rain = 0
KWA1 261532Z 16005KT 24/21 A3016 RMK A01 T02370207  RH  083%=      5-min Rain = 0
KWA1 261533Z 17005KT 24/21 A3016 RMK A01 T02380205  RH  082%=      5-min Rain = 0
KWA1 261534Z 16005KT 24/20 A3016 RMK A01 T02380203  RH  081%=      5-min Rain = 0
KWA1 261535Z 17005KT 24/21 A3016 RMK A01 T02380205  RH  082%=      5-min Rain = 0
KWA1 261536Z 17004KT 24/21 A3016 RMK A01 T02380205  RH  082%=      5-min Rain = 0
KWA1 261537Z 17005KT 24/21 A3016 RMK A01 T02380205  RH  082%=      5-min Rain = 0
KWA1 261538Z 15003KT 24/20 A3016 RMK A01 T02390204  RH  081%=      5-min Rain = 0
KWA1 261539Z 16004KT 24/21 A3016 RMK A01 T02390206  RH  082%=      5-min Rain = 0
KWA1 261540Z 16005KT 24/21 A3016 RMK A01 T02390205  RH  082%=      5-min Rain = 0
KWA1 261541Z 17005KT 24/21 A3016 RMK A01 T02390206  RH  082%=      5-min Rain = 0
KWA1 261542Z 16004KT 24/21 A3016 RMK A01 T02390206  RH  082%=      5-min Rain = 0
KWA1 261543Z 16005KT 24/21 A3016 RMK A01 T02400207  RH  082%=      5-min Rain = 0
KWA1 261544Z 16005KT 24/21 A3016 RMK A01 T02400206  RH  081%=      5-min Rain = 0
KWA1 261545Z 15005KT 24/21 A3016 RMK A01 T02410208  RH  082%=      5-min Rain = 0
KWA1 261546Z 16005KT 24/21 A3016 RMK A01 T02420206  RH  080%=      5-min Rain = 0
KWA1 261547Z 16005KT 24/21 A3016 RMK A01 T02420206  RH  081%=      5-min Rain = 0
KWA1 261548Z 15005KT 24/21 A3016 RMK A01 T02420207  RH  081%=      5-min Rain = 0
KWA1 261549Z 14005KT 24/21 A3016 RMK A01 T02420207  RH  081%=      5-min Rain = 0
KWA1 261550Z 15005KT 24/21 A3016 RMK A01 T02430206  RH  080%=      5-min Rain = 0
KWA1 261551Z 14005KT 24/21 A3016 RMK A01 T02440207  RH  080%=      5-min Rain = 0
KWA1 261552Z 14006KT 24/21 A3016 RMK A01 T02440208  RH  080%=      5-min Rain = 0
KWA1 261553Z 14005KT 25/21 A3016 RMK A01 T02450209  RH  080%=      5-min Rain = 0
KWA1 261554Z 15007KT 25/21 A3016 RMK A01 T02460208  RH  079%=      5-min Rain = 0
KWA1 261555Z 14006KT 25/21 A3016 RMK A01 T02470205  RH  078%=      5-min Rain = 0
KWA1 261556Z 14007KT 25/21 A3016 RMK A01 T02470205  RH  078%=      5-min Rain = 0
KWA1 261557Z 14006KT 25/21 A3016 RMK A01 T02470206  RH  078%=      5-min Rain = 0
KWA1 261558Z 12007KT 25/21 A3016 RMK A01 T02480209  RH  079%=      5-min Rain = 0
KWA1 261559Z 13005KT 25/21 A3016 RMK A01 T02500208  RH  078%=      5-min Rain = 0
KWA1 261600Z 12008KT 25/21 A3016 RMK A01 T02500207  RH  077%=      5-min Rain = 0
KWA1 261601Z 13007KT 25/21 A3016 RMK A01 T02510209  RH  077%=      5-min Rain = 0
KWA1 261602Z 14006KT 25/21 A3016 RMK A01 T02530208  RH  076%=      5-min Rain = 0
KWA1 261603Z 15006KT 25/21 A3016 RMK A01 T02530208  RH  076%=      5-min Rain = 0
KWA1 261604Z 15006KT 25/21 A3016 RMK A01 T02530207  RH  076%=      5-min Rain = 0
KWA1 261605Z 14007KT 25/21 A3016 RMK A01 T02520209  RH  077%=      5-min Rain = 0
KWA1 261606Z 12008KT 25/21 A3016 RMK A01 T02540211  RH  077%=      5-min Rain = 0
KWA1 261607Z 13008KT 26/21 A3016 RMK A01 T02550210  RH  076%=      5-min Rain = 0
KWA1 261608Z 13007KT 26/21 A3016 RMK A01 T02550207  RH  075%=      5-min Rain = 0
KWA1 261609Z 13006KT 25/21 A3016 RMK A01 T02540208  RH  076%=      5-min Rain = 0
KWA1 261610Z 13008KT 25/21 A3016 RMK A01 T02540209  RH  076%=      5-min Rain = 0
KWA1 261611Z 14007KT 26/21 A3016 RMK A01 T02550208  RH  075%=      5-min Rain = 0
KWA1 261612Z 13009KT 26/21 A3016 RMK A01 T02560210  RH  076%=      5-min Rain = 0
KWA1 261613Z 14007KT 26/21 A3016 RMK A01 T02560208  RH  075%=      5-min Rain = 0
KWA1 261614Z 13007KT 26/21 A3016 RMK A01 T02550208  RH  075%=      5-min Rain = 0
KWA1 261615Z 12006KT 25/21 A3016 RMK A01 T02540208  RH  076%=      5-min Rain = 0
KWA1 261616Z 12007KT 25/21 A3016 RMK A01 T02540207  RH  075%=      5-min Rain = 0
KWA1 261617Z 12007KT 25/21 A3016 RMK A01 T02530207  RH  076%=      5-min Rain = 0
KWA1 261618Z 13010KT 25/21 A3016 RMK A01 T02530207  RH  076%=      5-min Rain = 0
KWA1 261619Z 12008KT 25/21 A3016 RMK A01 T02530205  RH  075%=      5-min Rain = 0
KWA1 261620Z 12005KT 25/21 A3016 RMK A01 T02510205  RH  075%=      5-min Rain = 0
KWA1 261621Z 11006KT 25/21 A3016 RMK A01 T02510208  RH  077%=      5-min Rain = 0
KWA1 261622Z 12006KT 25/21 A3016 RMK A01 T02520209  RH  077%=      5-min Rain = 0
KWA1 261623Z 13008KT 25/21 A3016 RMK A01 T02540208  RH  076%=      5-min Rain = 0
KWA1 261624Z 12007KT 25/21 A3016 RMK A01 T02540210  RH  076%=      5-min Rain = 0
KWA1 261625Z 13006KT 26/21 A3016 RMK A01 T02550210  RH  076%=      5-min Rain = 0
KWA1 261626Z 12006KT 26/21 A3016 RMK A01 T02560209  RH  075%=      5-min Rain = 0
KWA1 261627Z 12008KT 26/21 A3016 RMK A01 T02560208  RH  075%=      5-min Rain = 0
KWA1 261628Z 13008KT 26/21 A3016 RMK A01 T02560209  RH  075%=      5-min Rain = 0
KWA1 261629Z 13007KT 26/21 A3016 RMK A01 T02570208  RH  074%=      5-min Rain = 0
KWA1 261630Z 11007KT 26/21 A3016 RMK A01 T02580212  RH  075%=      5-min Rain = 0
KWA1 261631Z 12007KT 26/21 A3016 RMK A01 T02600210  RH  074%=      5-min Rain = 0
KWA1 261632Z 13009KT 26/21 A3016 RMK A01 T02590209  RH  074%=      5-min Rain = 0
KWA1 261633Z 14010KT 26/21 A3016 RMK A01 T02590207  RH  073%=      5-min Rain = 0
KWA1 261634Z 14009KT 26/21 A3016 RMK A01 T02570207  RH  074%=      5-min Rain = 0
KWA1 261635Z 14008KT 26/21 A3016 RMK A01 T02570207  RH  074%=      5-min Rain = 0
KWA1 261636Z 13007KT 26/21 A3016 RMK A01 T02570208  RH  074%=      5-min Rain = 0
KWA1 261637Z 13008KT 26/21 A3016 RMK A01 T02560208  RH  075%=      5-min Rain = 0
KWA1 261638Z 13009KT 26/21 A3016 RMK A01 T02560206  RH  074%=      5-min Rain = 0
KWA1 261639Z 14009KT 26/21 A3016 RMK A01 T02560206  RH  074%=      5-min Rain = 0
KWA1 261640Z 13009KT 26/21 A3016 RMK A01 T02570209  RH  074%=      5-min Rain = 0
KWA1 261641Z 14009KT 26/21 A3016 RMK A01 T02580207  RH  073%=      5-min Rain = 0
KWA1 261642Z 14009KT 26/21 A3016 RMK A01 T02580208  RH  074%=      5-min Rain = 0
KWA1 261643Z 12010KT 26/21 A3016 RMK A01 T02570207  RH  074%=      5-min Rain = 0
KWA1 261644Z 12010KT 26/21 A3016 RMK A01 T02570208  RH  074%=      5-min Rain = 0
KWA1 261645Z 12010KT 26/21 A3016 RMK A01 T02570208  RH  074%=      5-min Rain = 0
KWA1 261646Z 12009KT 26/21 A3016 RMK A01 T02570208  RH  074%=      5-min Rain = 0
KWA1 261647Z 13010KT 26/21 A3016 RMK A01 T02580208  RH  073%=      5-min Rain = 0
KWA1 261648Z 13012KT 26/21 A3016 RMK A01 T02600208  RH  073%=      5-min Rain = 0
KWA1 261649Z 13012KT 26/21 A3016 RMK A01 T02610208  RH  072%=      5-min Rain = 0
KWA1 261650Z 13010KT 26/21 A3016 RMK A01 T02630208  RH  072%=      5-min Rain = 0
KWA1 261651Z 14008KT 26/21 A3016 RMK A01 T02620206  RH  071%=      5-min Rain = 0
KWA1 261652Z 15010KT 26/21 A3016 RMK A01 T02600208  RH  073%=      5-min Rain = 0
KWA1 261653Z 15009KT 26/21 A3016 RMK A01 T02600206  RH  072%=      5-min Rain = 0
KWA1 261654Z 12009KT 26/21 A3016 RMK A01 T02600208  RH  073%=      5-min Rain = 0
KWA1 261655Z 12010KT 26/21 A3016 RMK A01 T02600210  RH  074%=      5-min Rain = 0
KWA1 261656Z 12011KT 26/21 A3016 RMK A01 T02610207  RH  072%=      5-min Rain = 0
KWA1 261657Z 12012KT 26/21 A3016 RMK A01 T02600208  RH  073%=      5-min Rain = 0
KWA1 261658Z 12012KT 26/21 A3016 RMK A01 T02600206  RH  072%=      5-min Rain = 0
KWA1 261659Z 12012KT 26/21 A3016 RMK A01 T02590206  RH  072%=      5-min Rain = 0
KWA1 261700Z 13010KT 26/21 A3016 RMK A01 T02590207  RH  073%=      5-min Rain = 0
KWA1 261701Z 14010KT 26/21 A3016 RMK A01 T02600210  RH  074%=      5-min Rain = 0
KWA1 261702Z 14010KT 26/21 A3016 RMK A01 T02610209  RH  073%=      5-min Rain = 0
KWA1 261703Z 14011KT 26/21 A3016 RMK A01 T02620208  RH  072%=      5-min Rain = 0
KWA1 261704Z 14011KT 26/21 A3016 RMK A01 T02610207  RH  072%=      5-min Rain = 0
KWA1 261705Z 13009KT 26/21 A3016 RMK A01 T02600207  RH  073%=      5-min Rain = 0
KWA1 261706Z 13010KT 26/21 A3016 RMK A01 T02600207  RH  072%=      5-min Rain = 0
KWA1 261707Z 12010KT 26/21 A3016 RMK A01 T02600207  RH  072%=      5-min Rain = 0
KWA1 261708Z 12011KT 26/21 A3016 RMK A01 T02600206  RH  072%=      5-min Rain = 0
KWA1 261709Z 13008KT 26/21 A3016 RMK A01 T02600206  RH  072%=      5-min Rain = 0
KWA1 261710Z 14010KT 26/21 A3016 RMK A01 T02620207  RH  072%=      5-min Rain = 0
KWA1 261711Z 15007KT 26/21 A3016 RMK A01 T02630209  RH  072%=      5-min Rain = 0
KWA1 261712Z 15006KT 27/21 A3016 RMK A01 T02650209  RH  071%=      5-min Rain = 0
KWA1 261713Z 13009KT 27/21 A3016 RMK A01 T02650210  RH  072%=      5-min Rain = 0
KWA1 261714Z 13011KT 27/21 A3016 RMK A01 T02650208  RH  071%=      5-min Rain = 0
KWA1 261715Z 13008KT 27/21 A3016 RMK A01 T02650208  RH  071%=      5-min Rain = 0
KWA1 261716Z 12010KT 27/21 A3016 RMK A01 T02660210  RH  072%=      5-min Rain = 0
KWA1 261717Z 13007KT 27/21 A3016 RMK A01 T02670210  RH  071%=      5-min Rain = 0
KWA1 261718Z 15008KT 27/21 A3016 RMK A01 T02680210  RH  071%=      5-min Rain = 0
KWA1 261719Z 14011KT 27/21 A3016 RMK A01 T02690211  RH  071%=      5-min Rain = 0
KWA1 261720Z 13012KT 27/21 A3016 RMK A01 T02710209  RH  069%=      5-min Rain = 0
KWA1 261721Z 13010KT 27/21 A3016 RMK A01 T02720209  RH  069%=      5-min Rain = 0
KWA1 261722Z 16008KT 27/21 A3016 RMK A01 T02700206  RH  068%=      5-min Rain = 0
KWA1 261723Z 18006KT 27/21 A3016 RMK A01 T02680207  RH  069%=      5-min Rain = 0
KWA1 261724Z 18006KT 27/21 A3016 RMK A01 T02690207  RH  069%=      5-min Rain = 0
KWA1 261725Z 18009KT 27/21 A3016 RMK A01 T02690206  RH  068%=      5-min Rain = 0
KWA1 261726Z 18007KT 27/20 A3016 RMK A01 T02680202  RH  067%=      5-min Rain = 0
KWA1 261727Z 17010KT 27/20 A3016 RMK A01 T02660204  RH  069%=      5-min Rain = 0
KWA1 261728Z 17010KT 27/20 A3016 RMK A01 T02660204  RH  069%=      5-min Rain = 0
KWA1 261729Z 17009KT 27/20 A3016 RMK A01 T02650204  RH  069%=      5-min Rain = 0
KWA1 261730Z 16008KT 27/21 A3016 RMK A01 T02670206  RH  069%=      5-min Rain = 0
KWA1 261731Z 14006KT 27/21 A3016 RMK A01 T02720213  RH  070%=      5-min Rain = 0
KWA1 261732Z 13007KT 28/21 A3015 RMK A01 T02760212  RH  068%=      5-min Rain = 0
KWA1 261733Z 14007KT 28/21 A3015 RMK A01 T02750205  RH  066%=      5-min Rain = 0
KWA1 261734Z 16005KT 27/21 A3015 RMK A01 T02720206  RH  067%=      5-min Rain = 0
KWA1 261735Z 17005KT 27/21 A3015 RMK A01 T02710205  RH  067%=      5-min Rain = 0
KWA1 261736Z 17008KT 27/21 A3015 RMK A01 T02730211  RH  069%=      5-min Rain = 0
KWA1 261737Z 16006KT 28/21 A3015 RMK A01 T02760210  RH  067%=      5-min Rain = 0
KWA1 261738Z 17006KT 28/21 A3015 RMK A01 T02780209  RH  066%=      5-min Rain = 0
KWA1 261739Z 14006KT 28/21 A3015 RMK A01 T02780208  RH  066%=      5-min Rain = 0
KWA1 261740Z 14007KT 28/21 A3015 RMK A01 T02780210  RH  066%=      5-min Rain = 0
KWA1 261741Z 15006KT 28/21 A3015 RMK A01 T02780207  RH  065%=      5-min Rain = 0
KWA1 261742Z 13006KT 28/21 A3015 RMK A01 T02760205  RH  065%=      5-min Rain = 0
KWA1 261743Z 13006KT 28/21 A3015 RMK A01 T02750206  RH  066%=      5-min Rain = 0
KWA1 261744Z 14006KT 28/21 A3015 RMK A01 T02750207  RH  067%=      5-min Rain = 0
KWA1 261745Z 15008KT 28/21 A3015 RMK A01 T02760207  RH  066%=      5-min Rain = 0
KWA1 261746Z 13005KT 28/20 A3015 RMK A01 T02770203  RH  064%=      5-min Rain = 0
KWA1 261747Z 15006KT 28/21 A3015 RMK A01 T02760207  RH  066%=      5-min Rain = 0
KWA1 261748Z 15007KT 28/21 A3015 RMK A01 T02760206  RH  065%=      5-min Rain = 0
KWA1 261749Z 16009KT 28/21 A3015 RMK A01 T02780209  RH  066%=      5-min Rain = 0
KWA1 261750Z 16008KT 28/21 A3015 RMK A01 T02820210  RH  065%=      5-min Rain = 0
KWA1 261751Z 15008KT 28/21 A3015 RMK A01 T02820205  RH  063%=      5-min Rain = 0
KWA1 261752Z 15006KT 28/20 A3015 RMK A01 T02790201  RH  062%=      5-min Rain = 0
KWA1 261753Z 17005KT 28/21 A3015 RMK A01 T02770206  RH  065%=      5-min Rain = 0
KWA1 261754Z 17008KT 28/21 A3015 RMK A01 T02780207  RH  065%=      5-min Rain = 0
KWA1 261755Z 18008KT 28/21 A3015 RMK A01 T02810207  RH  064%=      5-min Rain = 0
KWA1 261756Z 17006KT 28/21 A3015 RMK A01 T02820208  RH  064%=      5-min Rain = 0
KWA1 261757Z 20007KT 28/21 A3015 RMK A01 T02820208  RH  064%=      5-min Rain = 0
KWA1 261758Z 20005KT 28/21 A3015 RMK A01 T02830206  RH  063%=      5-min Rain = 0
KWA1 261759Z 20005KT 28/21 A3015 RMK A01 T02830209  RH  064%=      5-min Rain = 0
KWA1 261800Z 21006KT 28/21 A3014 RMK A01 T02830206  RH  063%=      5-min Rain = 0
KWA1 261801Z 23004KT 28/20 A3014 RMK A01 T02810202  RH  062%=      5-min Rain = 0
KWA1 261802Z 22004KT 28/21 A3014 RMK A01 T02790205  RH  064%=      5-min Rain = 0
KWA1 261803Z 21005KT 28/21 A3014 RMK A01 T02790208  RH  065%=      5-min Rain = 0
KWA1 261804Z 18004KT 28/21 A3014 RMK A01 T02820209  RH  065%=      5-min Rain = 0
KWA1 261805Z 17003KT 28/21 A3014 RMK A01 T02830208  RH  064%=      5-min Rain = 0
KWA1 261806Z 15004KT 28/21 A3014 RMK A01 T02840208  RH  064%=      5-min Rain = 0
KWA1 261807Z 15007KT 29/21 A3014 RMK A01 T02850209  RH  063%=      5-min Rain = 0
KWA1 261808Z 15008KT 29/21 A3014 RMK A01 T02870208  RH  062%=      5-min Rain = 0
KWA1 261809Z 17008KT 29/21 A3014 RMK A01 T02880209  RH  062%=      5-min Rain = 0
KWA1 261810Z 16006KT 29/21 A3014 RMK A01 T02890208  RH  062%=      5-min Rain = 0
KWA1 261811Z 14005KT 29/21 A3014 RMK A01 T02890207  RH  061%=      5-min Rain = 0
KWA1 261812Z 12007KT 29/21 A3014 RMK A01 T02890208  RH  062%=      5-min Rain = 0
KWA1 261813Z 12005KT 29/20 A3014 RMK A01 T02880203  RH  060%=      5-min Rain = 0
KWA1 261814Z 11005KT 28/21 A3014 RMK A01 T02840207  RH  063%=      5-min Rain = 0
KWA1 261815Z 13004KT 29/20 A3014 RMK A01 T02850204  RH  062%=      5-min Rain = 0
KWA1 261816Z 05001KT 28/20 A3014 RMK A01 T02840197  RH  059%=      5-min Rain = 0
KWA1 261817Z 12002KT 28/21 A3014 RMK A01 T02840205  RH  062%=      5-min Rain = 0
KWA1 261818Z 16008KT 29/21 A3014 RMK A01 T02850206  RH  062%=      5-min Rain = 0
KWA1 261819Z 17009KT 29/21 A3014 RMK A01 T02880206  RH  061%=      5-min Rain = 0
KWA1 261820Z 18009KT 29/20 A3014 RMK A01 T02910204  RH  059%=      5-min Rain = 0
KWA1 261821Z 17007KT 29/20 A3014 RMK A01 T02920202  RH  058%=      5-min Rain = 0
KWA1 261822Z 16007KT 29/20 A3014 RMK A01 T02920202  RH  058%=      5-min Rain = 0
KWA1 261823Z 16008KT 29/20 A3014 RMK A01 T02930202  RH  058%=      5-min Rain = 0
KWA1 261824Z 16006KT 29/20 A3014 RMK A01 T02930201  RH  058%=      5-min Rain = 0
KWA1 261825Z 14006KT 29/20 A3013 RMK A01 T02910203  RH  059%=      5-min Rain = 0
KWA1 261826Z 11004KT 29/20 A3013 RMK A01 T02900201  RH  059%=      5-min Rain = 0
KWA1 261827Z 15006KT 29/20 A3013 RMK A01 T02880203  RH  060%=      5-min Rain = 0
KWA1 261828Z 15007KT 29/20 A3013 RMK A01 T02870198  RH  059%=      5-min Rain = 0
KWA1 261829Z 14005KT 29/20 A3013 RMK A01 T02850197  RH  059%=      5-min Rain = 0
KWA1 261830Z 13004KT 28/20 A3013 RMK A01 T02840199  RH  060%=      5-min Rain = 0
KWA1 261831Z 13004KT 29/20 A3013 RMK A01 T02850203  RH  061%=      5-min Rain = 0
KWA1 261832Z 13004KT 29/20 A3013 RMK A01 T02870202  RH  060%=      5-min Rain = 0
KWA1 261833Z 11004KT 29/21 A3013 RMK A01 T02870205  RH  061%=      5-min Rain = 0
KWA1 261834Z 14006KT 29/21 A3013 RMK A01 T02890206  RH  061%=      5-min Rain = 0
KWA1 261835Z 13008KT 29/21 A3013 RMK A01 T02900207  RH  061%=      5-min Rain = 0
KWA1 261836Z 12009KT 29/21 A3013 RMK A01 T02910206  RH  060%=      5-min Rain = 0
KWA1 261837Z 13007KT 29/20 A3013 RMK A01 T02900204  RH  060%=      5-min Rain = 0
KWA1 261838Z 13007KT 29/20 A3013 RMK A01 T02880201  RH  059%=      5-min Rain = 0
KWA1 261839Z 13007KT 29/21 A3013 RMK A01 T02860205  RH  061%=      5-min Rain = 0
KWA1 261840Z 13009KT 29/21 A3013 RMK A01 T02890206  RH  061%=      5-min Rain = 0
KWA1 261841Z 13008KT 29/21 A3013 RMK A01 T02900205  RH  060%=      5-min Rain = 0
KWA1 261842Z 13007KT 29/21 A3013 RMK A01 T02900205  RH  060%=      5-min Rain = 0
KWA1 261843Z 12004KT 29/21 A3013 RMK A01 T02900205  RH  060%=      5-min Rain = 0
KWA1 261844Z 12003KT 29/21 A3013 RMK A01 T02900205  RH  060%=      5-min Rain = 0
KWA1 261845Z 13008G13KT 29/21 A3013 RMK A01 T02890205  RH  061%=      5-min Rain = 0
KWA1 261846Z 12010KT 29/20 A3013 RMK A01 T02890202  RH  059%=      5-min Rain = 0
KWA1 261847Z 11007KT 29/20 A3013 RMK A01 T02890202  RH  059%=      5-min Rain = 0
KWA1 261848Z 10005KT 29/20 A3013 RMK A01 T02880201  RH  059%=      5-min Rain = 0
KWA1 261849Z 13008KT 29/20 A3013 RMK A01 T02880204  RH  060%=      5-min Rain = 0
KWA1 261850Z 12007KT 29/20 A3013 RMK A01 T02900203  RH  059%=      5-min Rain = 0
KWA1 261851Z 10004KT 29/21 A3013 RMK A01 T02910206  RH  060%=      5-min Rain = 0
KWA1 261852Z 12004KT 29/20 A3013 RMK A01 T02920203  RH  059%=      5-min Rain = 0
KWA1 261853Z 15006KT 29/21 A3013 RMK A01 T02940206  RH  059%=      5-min Rain = 0
KWA1 261854Z 15005KT 30/21 A3013 RMK A01 T02960208  RH  059%=      5-min Rain = 0
KWA1 261855Z 14003KT 30/20 A3013 RMK A01 T02960203  RH  057%=      5-min Rain = 0
KWA1 261856Z 13003KT 30/21 A3013 RMK A01 T02960205  RH  058%=      5-min Rain = 0
KWA1 261857Z 12004KT 29/20 A3013 RMK A01 T02940200  RH  057%=      5-min Rain = 0
KWA1 261858Z 10004KT 29/20 A3013 RMK A01 T02930201  RH  058%=      5-min Rain = 0
KWA1 261859Z 11003KT 29/20 A3012 RMK A01 T02930199  RH  057%=      5-min Rain = 0
KWA1 261900Z 11007KT 29/21 A3012 RMK A01 T02920205  RH  059%=      5-min Rain = 0
KWA1 261901Z 12006KT 29/20 A3012 RMK A01 T02920203  RH  059%=      5-min Rain = 0
KWA1 261902Z 12006KT 29/20 A3012 RMK A01 T02910201  RH  058%=      5-min Rain = 0
KWA1 261903Z 15005KT 29/20 A3012 RMK A01 T02900199  RH  058%=      5-min Rain = 0
KWA1 261904Z 15005KT 29/20 A3012 RMK A01 T02900204  RH  060%=      5-min Rain = 0
KWA1 261905Z 10004KT 29/20 A3013 RMK A01 T02920203  RH  059%=      5-min Rain = 0
KWA1 261906Z 14005KT 29/20 A3012 RMK A01 T02940203  RH  058%=      5-min Rain = 0
KWA1 261907Z 13003KT 29/20 A3013 RMK A01 T02930200  RH  057%=      5-min Rain = 0
KWA1 261908Z 13004KT 29/20 A3013 RMK A01 T02910200  RH  058%=      5-min Rain = 0
KWA1 261909Z 11004KT 29/20 A3013 RMK A01 T02900203  RH  059%=      5-min Rain = 0
KWA1 261910Z 10003KT 29/20 A3012 RMK A01 T02890200  RH  059%=      5-min Rain = 0
KWA1 261911Z 13003KT 29/20 A3012 RMK A01 T02880202  RH  059%=      5-min Rain = 0
KWA1 261912Z 15005KT 29/21 A3012 RMK A01 T02900210  RH  062%=      5-min Rain = 0
KWA1 261913Z 18005KT 29/21 A3012 RMK A01 T02940208  RH  060%=      5-min Rain = 0
KWA1 261914Z 13005KT 30/21 A3012 RMK A01 T02960205  RH  058%=      5-min Rain = 0
KWA1 261915Z 11006KT 30/20 A3012 RMK A01 T02960198  RH  056%=      5-min Rain = 0
KWA1 261916Z 13004KT 29/20 A3012 RMK A01 T02940196  RH  056%=      5-min Rain = 0
KWA1 261917Z 17005KT 29/20 A3012 RMK A01 T02920199  RH  057%=      5-min Rain = 0
KWA1 261918Z 16006KT 29/20 A3012 RMK A01 T02940201  RH  057%=      5-min Rain = 0
KWA1 261919Z 14005KT 30/20 A3012 RMK A01 T02960197  RH  055%=      5-min Rain = 0
KWA1 261920Z 14004KT 30/20 A3012 RMK A01 T02960196  RH  055%=      5-min Rain = 0
KWA1 261921Z 13007KT 30/20 A3012 RMK A01 T02960200  RH  056%=      5-min Rain = 0
KWA1 261922Z 13006KT 30/20 A3012 RMK A01 T02970200  RH  056%=      5-min Rain = 0
KWA1 261923Z 13008KT 30/20 A3012 RMK A01 T02980200  RH  056%=      5-min Rain = 0
KWA1 261924Z 14009KT 30/20 A3012 RMK A01 T02990197  RH  055%=      5-min Rain = 0
KWA1 261925Z 15008KT 30/20 A3012 RMK A01 T02990200  RH  055%=      5-min Rain = 0
KWA1 261926Z 15008KT 30/20 A3012 RMK A01 T03020201  RH  055%=      5-min Rain = 0
KWA1 261927Z 13007KT 30/20 A3012 RMK A01 T03020200  RH  054%=      5-min Rain = 0
KWA1 261928Z 11007KT 30/20 A3012 RMK A01 T03020198  RH  054%=      5-min Rain = 0
KWA1 261929Z 11006KT 30/20 A3012 RMK A01 T02990195  RH  054%=      5-min Rain = 0
KWA1 261930Z 12007KT 30/20 A3012 RMK A01 T02980202  RH  056%=      5-min Rain = 0
KWA1 261931Z 10005KT 30/20 A3012 RMK A01 T03000199  RH  055%=      5-min Rain = 0
KWA1 261932Z 11005KT 30/21 A3012 RMK A01 T03010205  RH  057%=      5-min Rain = 0
KWA1 261933Z 12008KT 30/20 A3012 RMK A01 T03030204  RH  056%=      5-min Rain = 0
KWA1 261934Z 12008KT 30/20 A3012 RMK A01 T03040202  RH  054%=      5-min Rain = 0
KWA1 261935Z 12010KT 30/20 A3012 RMK A01 T03030201  RH  054%=      5-min Rain = 0
KWA1 261936Z 11009KT 30/20 A3012 RMK A01 T03030202  RH  055%=      5-min Rain = 0
KWA1 261937Z 10008KT 30/20 A3012 RMK A01 T03030201  RH  054%=      5-min Rain = 0
KWA1 261938Z 10008KT 30/20 A3012 RMK A01 T03030201  RH  055%=      5-min Rain = 0
KWA1 261939Z 11006KT 30/20 A3012 RMK A01 T03030202  RH  055%=      5-min Rain = 0
KWA1 261940Z 13007KT 30/21 A3012 RMK A01 T03040208  RH  056%=      5-min Rain = 0
KWA1 261941Z 13008KT 31/21 A3011 RMK A01 T03060205  RH  055%=      5-min Rain = 0
KWA1 261942Z 14009KT 31/20 A3011 RMK A01 T03060201  RH  054%=      5-min Rain = 0
KWA1 261943Z 14010KT 30/20 A3011 RMK A01 T03040204  RH  055%=      5-min Rain = 0
KWA1 261944Z 17009KT 31/20 A3011 RMK A01 T03070203  RH  054%=      5-min Rain = 0
KWA1 261945Z 18008KT 31/20 A3011 RMK A01 T03090202  RH  053%=      5-min Rain = 0
KWA1 261946Z 20005KT 31/20 A3011 RMK A01 T03080203  RH  054%=      5-min Rain = 0
KWA1 261947Z 18006KT 31/21 A3011 RMK A01 T03090205  RH  054%=      5-min Rain = 0
KWA1 261948Z 13008KT 31/21 A3011 RMK A01 T03110205  RH  053%=      5-min Rain = 0
KWA1 261949Z 13011KT 31/20 A3011 RMK A01 T03110202  RH  052%=      5-min Rain = 0
KWA1 261950Z 14009KT 31/20 A3011 RMK A01 T03090199  RH  052%=      5-min Rain = 0
KWA1 261951Z 13011KT 31/20 A3011 RMK A01 T03090203  RH  054%=      5-min Rain = 0
KWA1 261952Z 13009KT 31/20 A3011 RMK A01 T03100202  RH  053%=      5-min Rain = 0
KWA1 261953Z 14009KT 31/20 A3011 RMK A01 T03080200  RH  053%=      5-min Rain = 0
KWA1 261954Z 13007KT 31/20 A3011 RMK A01 T03050198  RH  053%=      5-min Rain = 0
KWA1 261955Z 12006KT 30/20 A3011 RMK A01 T03020198  RH  054%=      5-min Rain = 0
KWA1 261956Z 14007KT 30/20 A3011 RMK A01 T03010197  RH  054%=      5-min Rain = 0
KWA1 261957Z 14011KT 30/20 A3011 RMK A01 T03030201  RH  055%=      5-min Rain = 0
KWA1 261958Z 15012KT 31/20 A3011 RMK A01 T03060199  RH  053%=      5-min Rain = 0
KWA1 261959Z 14013KT 31/20 A3011 RMK A01 T03050198  RH  053%=      5-min Rain = 0
KWA1 262000Z 15013KT 31/20 A3011 RMK A01 T03050198  RH  053%=      5-min Rain = 0
KWA1 262001Z 13013KT 31/20 A3011 RMK A01 T03050199  RH  053%=      5-min Rain = 0
KWA1 262002Z 13010KT 31/20 A3011 RMK A01 T03060197  RH  052%=      5-min Rain = 0
KWA1 262003Z 13011KT 31/20 A3011 RMK A01 T03070203  RH  054%=      5-min Rain = 0
KWA1 262004Z 13013KT 31/20 A3011 RMK A01 T03110200  RH  052%=      5-min Rain = 0
KWA1 262005Z 13010KT 31/20 A301 RMK A01 T03110198  RH  051%=      5-min Rain = 0
KWA1 262006Z 12007KT 31/20 A301 RMK A01 T03090197  RH  051%=      5-min Rain = 0
KWA1 262007Z 11008KT 31/20 A301 RMK A01 T03080202  RH  053%=      5-min Rain = 0
KWA1 262008Z 13010KT 31/21 A301 RMK A01 T03090205  RH  054%=      5-min Rain = 0
KWA1 262009Z 14007KT 31/20 A301 RMK A01 T03100203  RH  053%=      5-min Rain = 0
KWA1 262010Z 13011KT 31/21 A301 RMK A01 T03100205  RH  054%=      5-min Rain = 0
KWA1 262011Z 15011KT 31/20 A301 RMK A01 T03110200  RH  051%=      5-min Rain = 0
KWA1 262012Z 14009KT 31/20 A301 RMK A01 T03100202  RH  053%=      5-min Rain = 0
KWA1 262013Z 13012KT 31/20 A301 RMK A01 T03110202  RH  052%=      5-min Rain = 0
KWA1 262014Z 14010KT 31/20 A301 RMK A01 T03110200  RH  052%=      5-min Rain = 0
KWA1 262015Z 13010KT 31/20 A301 RMK A01 T03100200  RH  052%=      5-min Rain = 0
KWA1 262016Z 13012KT 31/20 A301 RMK A01 T03100200  RH  052%=      5-min Rain = 0
KWA1 262017Z 13012KT 31/20 A301 RMK A01 T03090199  RH  052%=      5-min Rain = 0
KWA1 262018Z 12012KT 31/20 A301 RMK A01 T03080201  RH  053%=      5-min Rain = 0
KWA1 262019Z 12011KT 31/20 A301 RMK A01 T03070201  RH  053%=      5-min Rain = 0
KWA1 262020Z 13012KT 31/20 A301 RMK A01 T03080203  RH  053%=      5-min Rain = 0
KWA1 262021Z 15011KT 31/20 A301 RMK A01 T03090203  RH  053%=      5-min Rain = 0
KWA1 262022Z 14010KT 31/20 A301 RMK A01 T03080201  RH  053%=      5-min Rain = 0
KWA1 262023Z 15014KT 31/20 A301 RMK A01 T03060202  RH  054%=      5-min Rain = 0
KWA1 262024Z 16012KT 31/20 A301 RMK A01 T03060201  RH  053%=      5-min Rain = 0
KWA1 262025Z 14012KT 31/20 A301 RMK A01 T03060200  RH  053%=      5-min Rain = 0
KWA1 262026Z 13013KT 31/20 A301 RMK A01 T03050197  RH  052%=      5-min Rain = 0
KWA1 262027Z 15010KT 31/20 A301 RMK A01 T03050198  RH  053%=      5-min Rain = 0
KWA1 262028Z 17008KT 31/20 A301 RMK A01 T03050201  RH  054%=      5-min Rain = 0
KWA1 262029Z 12011KT 31/20 A301 RMK A01 T03060201  RH  053%=      5-min Rain = 0
KWA1 262030Z 12012KT 31/20 A301 RMK A01 T03070201  RH  053%=      5-min Rain = 0
KWA1 262031Z 12012KT 31/20 A301 RMK A01 T03080202  RH  053%=      5-min Rain = 0
KWA1 262032Z 13010KT 31/20 A3009 RMK A01 T03080202  RH  053%=      5-min Rain = 0
KWA1 262033Z 14011KT 31/20 A3009 RMK A01 T03080203  RH  054%=      5-min Rain = 0
KWA1 262034Z 13008KT 31/20 A3009 RMK A01 T03080202  RH  053%=      5-min Rain = 0
KWA1 262035Z 13010KT 31/20 A3009 RMK A01 T03080204  RH  054%=      5-min Rain = 0
KWA1 262036Z 14011KT 31/21 A301 RMK A01 T03080206  RH  055%=      5-min Rain = 0
KWA1 262037Z 13012KT 31/20 A301 RMK A01 T03080204  RH  054%=      5-min Rain = 0
KWA1 262038Z 14012KT 31/20 A3009 RMK A01 T03060199  RH  053%=      5-min Rain = 0
KWA1 262039Z 14011KT 30/20 A3009 RMK A01 T03040198  RH  053%=      5-min Rain = 0
KWA1 262040Z 14008KT 30/20 A3009 RMK A01 T03040201  RH  054%=      5-min Rain = 0
KWA1 262041Z 13009KT 31/20 A3009 RMK A01 T03070203  RH  054%=      5-min Rain = 0
KWA1 262042Z 12009KT 31/20 A3009 RMK A01 T03070204  RH  054%=      5-min Rain = 0
KWA1 262043Z 13011KT 31/20 A3009 RMK A01 T03090204  RH  054%=      5-min Rain = 0
KWA1 262044Z 12009KT 31/20 A3009 RMK A01 T03100201  RH  053%=      5-min Rain = 0
KWA1 262045Z 12007KT 31/20 A3009 RMK A01 T03080202  RH  053%=      5-min Rain = 0
KWA1 262046Z 11011KT 31/21 A3009 RMK A01 T03080205  RH  054%=      5-min Rain = 0
KWA1 262047Z 12012KT 31/20 A3009 RMK A01 T03090203  RH  053%=      5-min Rain = 0
KWA1 262048Z 14010KT 31/20 A3009 RMK A01 T03090201  RH  052%=      5-min Rain = 0
KWA1 262049Z 12012KT 31/20 A3009 RMK A01 T03080203  RH  053%=      5-min Rain = 0
KWA1 262050Z 14013KT 31/21 A3009 RMK A01 T03120207  RH  054%=      5-min Rain = 0
KWA1 262051Z 15011KT 32/20 A3009 RMK A01 T03150201  RH  051%=      5-min Rain = 0
KWA1 262052Z 15009KT 31/20 A3009 RMK A01 T03130202  RH  052%=      5-min Rain = 0
KWA1 262053Z 16008KT 31/20 A3009 RMK A01 T03120204  RH  053%=      5-min Rain = 0
KWA1 262054Z 15012KT 31/21 A3009 RMK A01 T03130207  RH  053%=      5-min Rain = 0
KWA1 262055Z 12012KT 32/21 A3009 RMK A01 T03150205  RH  052%=      5-min Rain = 0
KWA1 262056Z 14013KT 32/21 A3009 RMK A01 T03150205  RH  052%=      5-min Rain = 0
KWA1 262057Z 13014KT 32/21 A3009 RMK A01 T03150208  RH  053%=      5-min Rain = 0
KWA1 262058Z 13015KT 31/21 A3009 RMK A01 T03140211  RH  054%=      5-min Rain = 0
KWA1 262059Z 12014KT 31/21 A3009 RMK A01 T03140211  RH  054%=      5-min Rain = 0
KWA1 262100Z 12012KT 31/21 A3009 RMK A01 T03130208  RH  053%=      5-min Rain = 0
KWA1 262101Z 13013KT 31/21 A3009 RMK A01 T03110207  RH  054%=      5-min Rain = 0
KWA1 262102Z 13013KT 31/20 A3009 RMK A01 T03070204  RH  054%=      5-min Rain = 0
KWA1 262103Z 13010KT 31/21 A3009 RMK A01 T03060207  RH  056%=      5-min Rain = 0
KWA1 262104Z 13010KT 31/21 A3009 RMK A01 T03070205  RH  054%=      5-min Rain = 0
KWA1 262105Z 13011KT 31/21 A3009 RMK A01 T03100206  RH  054%=      5-min Rain = 0
KWA1 262106Z 13010KT 31/20 A3009 RMK A01 T03100202  RH  053%=      5-min Rain = 0
KWA1 262107Z 13008KT 31/20 A3009 RMK A01 T03090202  RH  053%=      5-min Rain = 0
KWA1 262108Z 13008KT 31/20 A3009 RMK A01 T03080203  RH  054%=      5-min Rain = 0
KWA1 262109Z 13011KT 31/21 A3009 RMK A01 T03090209  RH  055%=      5-min Rain = 0
KWA1 262110Z 13008KT 31/21 A3009 RMK A01 T03110205  RH  053%=      5-min Rain = 0
KWA1 262111Z 14009KT 31/21 A3009 RMK A01 T03120207  RH  054%=      5-min Rain = 0
KWA1 262112Z 14007KT 31/21 A3009 RMK A01 T03120207  RH  054%=      5-min Rain = 0
KWA1 262113Z 15005KT 31/20 A3008 RMK A01 T03130202  RH  052%=      5-min Rain = 0
KWA1 262114Z 13007KT 31/21 A3008 RMK A01 T03130207  RH  054%=      5-min Rain = 0
KWA1 262115Z 14008KT 31/21 A3008 RMK A01 T03130206  RH  053%=      5-min Rain = 0
KWA1 262116Z 13010KT 31/21 A3009 RMK A01 T03140208  RH  053%=      5-min Rain = 0
KWA1 262117Z 12014KT 32/21 A3009 RMK A01 T03180210  RH  053%=      5-min Rain = 0
KWA1 262118Z 12012KT 32/21 A3009 RMK A01 T03160210  RH  053%=      5-min Rain = 0
KWA1 262119Z 11011KT 32/21 A3009 RMK A01 T03160208  RH  053%=      5-min Rain = 0
KWA1 262120Z 11012KT 31/21 A3009 RMK A01 T03120206  RH  053%=      5-min Rain = 0
KWA1 262121Z 13012KT 31/21 A3009 RMK A01 T03090209  RH  055%=      5-min Rain = 0
KWA1 262122Z 16013KT 31/21 A3009 RMK A01 T03120210  RH  055%=      5-min Rain = 0
KWA1 262123Z 14014KT 31/21 A3009 RMK A01 T03130210  RH  054%=      5-min Rain = 0
KWA1 262124Z 15012KT 31/21 A3009 RMK A01 T03120211  RH  055%=      5-min Rain = 0
KWA1 262125Z 15013KT 31/21 A3008 RMK A01 T03120211  RH  055%=      5-min Rain = 0
KWA1 262126Z 16013KT 31/21 A3008 RMK A01 T03140209  RH  054%=      5-min Rain = 0
KWA1 262127Z 16012KT 31/21 A3008 RMK A01 T03140211  RH  055%=      5-min Rain = 0
KWA1 262128Z 18012KT 31/21 A3008 RMK A01 T03140210  RH  054%=      5-min Rain = 0
KWA1 262129Z 18010KT 31/21 A3008 RMK A01 T03130207  RH  053%=      5-min Rain = 0
KWA1 262130Z 18009KT 31/21 A3008 RMK A01 T03120210  RH  055%=      5-min Rain = 0
KWA1 262131Z 16009KT 31/21 A3008 RMK A01 T03130212  RH  055%=      5-min Rain = 0
KWA1 262132Z 15010KT 32/21 A3008 RMK A01 T03150210  RH  054%=      5-min Rain = 0
KWA1 262133Z 15010KT 31/21 A3008 RMK A01 T03140209  RH  054%=      5-min Rain = 0
KWA1 262134Z 14010KT 31/21 A3008 RMK A01 T03140209  RH  054%=      5-min Rain = 0
KWA1 262135Z 15012KT 31/21 A3008 RMK A01 T03140205  RH  052%=      5-min Rain = 0
KWA1 262136Z 14012KT 31/21 A3008 RMK A01 T03140206  RH  053%=      5-min Rain = 0
KWA1 262137Z 14012KT 31/20 A3008 RMK A01 T03130203  RH  052%=      5-min Rain = 0
KWA1 262138Z 16016KT 31/21 A3008 RMK A01 T03130206  RH  053%=      5-min Rain = 0
KWA1 262139Z 16015KT 32/21 A3008 RMK A01 T03150205  RH  052%=      5-min Rain = 0
KWA1 262140Z 15014KT 32/21 A3008 RMK A01 T03170206  RH  052%=      5-min Rain = 0
KWA1 262141Z 14014KT 32/20 A3008 RMK A01 T03190204  RH  051%=      5-min Rain = 0
KWA1 262142Z 15014KT 32/20 A3008 RMK A01 T03170202  RH  051%=      5-min Rain = 0
KWA1 262143Z 14015KT 32/20 A3008 RMK A01 T03160202  RH  051%=      5-min Rain = 0
KWA1 262144Z 15012KT 31/20 A3008 RMK A01 T03140198  RH  050%=      5-min Rain = 0
KWA1 262145Z 15011KT 31/20 A3008 RMK A01 T03120197  RH  051%=      5-min Rain = 0
KWA1 262146Z 14012KT 31/20 A3008 RMK A01 T03110200  RH  052%=      5-min Rain = 0
KWA1 262147Z 15013KT 31/20 A3008 RMK A01 T03110197  RH  051%=      5-min Rain = 0
KWA1 262148Z 16011KT 31/20 A3008 RMK A01 T03100197  RH  051%=      5-min Rain = 0
KWA1 262149Z 15011KT 31/20 A3008 RMK A01 T03100201  RH  053%=      5-min Rain = 0
KWA1 262150Z 15011KT 31/20 A3008 RMK A01 T03130198  RH  051%=      5-min Rain = 0
KWA1 262151Z 14012KT 31/20 A3008 RMK A01 T03130199  RH  051%=      5-min Rain = 0
KWA1 262152Z 13011KT 31/20 A3008 RMK A01 T03130198  RH  050%=      5-min Rain = 0
KWA1 262153Z 13011KT 31/20 A3008 RMK A01 T03130195  RH  050%=      5-min Rain = 0
KWA1 262154Z 13011KT 31/20 A3008 RMK A01 T03130195  RH  050%=      5-min Rain = 0
KWA1 262155Z 14011KT 31/20 A3008 RMK A01 T03120196  RH  050%=      5-min Rain = 0
KWA1 262156Z 15013KT 31/20 A3008 RMK A01 T03120200  RH  052%=      5-min Rain = 0
KWA1 262157Z 14011KT 31/20 A3008 RMK A01 T03140198  RH  050%=      5-min Rain = 0
KWA1 262158Z 13012KT 31/20 A3008 RMK A01 T03140196  RH  050%=      5-min Rain = 0
KWA1 262159Z 14013KT 31/20 A3008 RMK A01 T03130197  RH  050%=      5-min Rain = 0
KWA1 262200Z 16013KT 31/20 A3008 RMK A01 T03140199  RH  051%=      5-min Rain = 0
KWA1 262201Z 16013KT 32/20 A3008 RMK A01 T03150201  RH  051%=      5-min Rain = 0
KWA1 262202Z 17013KT 32/20 A3008 RMK A01 T03170199  RH  050%=      5-min Rain = 0
KWA1 262203Z 16014KT 32/20 A3008 RMK A01 T03170198  RH  049%=      5-min Rain = 0
KWA1 262204Z 16013KT 32/20 A3008 RMK A01 T03150199  RH  050%=      5-min Rain = 0
KWA1 262205Z 15013G18KT 31/20 A3008 RMK A01 T03140202  RH  051%=      5-min Rain = 0
KWA1 262206Z 16016KT 31/20 A3008 RMK A01 T03140199  RH  051%=      5-min Rain = 0
KWA1 262207Z 16015KT 31/20 A3008 RMK A01 T03140199  RH  050%=      5-min Rain = 0
KWA1 262208Z 16013KT 31/20 A3008 RMK A01 T03130197  RH  050%=      5-min Rain = 0
KWA1 262209Z 16011KT 31/20 A3008 RMK A01 T03110197  RH  051%=      5-min Rain = 0
KWA1 262210Z 16012KT 31/20 A3008 RMK A01 T03120199  RH  051%=      5-min Rain = 0
KWA1 262211Z 16012KT 31/20 A3008 RMK A01 T03130201  RH  051%=      5-min Rain = 0
KWA1 262212Z 14011KT 32/20 A3008 RMK A01 T03160202  RH  051%=      5-min Rain = 0
KWA1 262213Z 14011KT 32/20 A3008 RMK A01 T03170203  RH  051%=      5-min Rain = 0
KWA1 262214Z 15013KT 32/20 A3008 RMK A01 T03180201  RH  050%=      5-min Rain = 0
KWA1 262215Z 14011KT 32/20 A3008 RMK A01 T03170197  RH  049%=      5-min Rain = 0
KWA1 262216Z 15007KT 31/19 A3008 RMK A01 T03120194  RH  050%=      5-min Rain = 0
KWA1 262217Z 15010KT 31/20 A3008 RMK A01 T03090198  RH  052%=      5-min Rain = 0
KWA1 262218Z 13013KT 31/20 A3008 RMK A01 T03100200  RH  052%=      5-min Rain = 0
KWA1 262219Z 13014KT 31/20 A3008 RMK A01 T03120198  RH  051%=      5-min Rain = 0
KWA1 262220Z 14013KT 31/20 A3008 RMK A01 T03120198  RH  051%=      5-min Rain = 0
KWA1 262221Z 14012KT 31/20 A3008 RMK A01 T03120200  RH  051%=      5-min Rain = 0
KWA1 262222Z 13013KT 31/20 A3008 RMK A01 T03130198  RH  051%=      5-min Rain = 0
KWA1 262223Z 13012KT 31/20 A3008 RMK A01 T03130195  RH  049%=      5-min Rain = 0
KWA1 262224Z 13014KT 31/20 A3008 RMK A01 T03110198  RH  051%=      5-min Rain = 0
KWA1 262225Z 14012KT 31/20 A3008 RMK A01 T03110204  RH  053%=      5-min Rain = 0
KWA1 262226Z 13013KT 31/20 A3008 RMK A01 T03140203  RH  052%=      5-min Rain = 0
KWA1 262227Z 13015KT 31/20 A3008 RMK A01 T03130204  RH  052%=      5-min Rain = 0
KWA1 262228Z 14012KT 31/21 A3008 RMK A01 T03130205  RH  053%=      5-min Rain = 0
KWA1 262229Z 15013KT 31/21 A3008 RMK A01 T03140205  RH  052%=      5-min Rain = 0
KWA1 262230Z 14015KT 31/20 A3008 RMK A01 T03140201  RH  051%=      5-min Rain = 0
KWA1 262231Z 15014KT 31/20 A3008 RMK A01 T03140203  RH  052%=      5-min Rain = 0
KWA1 262232Z 15013KT 31/20 A3008 RMK A01 T03130203  RH  052%=      5-min Rain = 0
KWA1 262233Z 15014KT 31/20 A3008 RMK A01 T03140202  RH  051%=      5-min Rain = 0
KWA1 262234Z 15012KT 31/20 A3007 RMK A01 T03110200  RH  051%=      5-min Rain = 0
KWA1 262235Z 16011KT 31/20 A3007 RMK A01 T03110202  RH  052%=      5-min Rain = 0
KWA1 262236Z 14014KT 31/20 A3008 RMK A01 T03120203  RH  052%=      5-min Rain = 0
KWA1 262237Z 14013KT 31/20 A3008 RMK A01 T03120202  RH  052%=      5-min Rain = 0
KWA1 262238Z 14012KT 31/20 A3007 RMK A01 T03110202  RH  052%=      5-min Rain = 0
KWA1 262239Z 14012KT 31/20 A3007 RMK A01 T03090201  RH  052%=      5-min Rain = 0
KWA1 262240Z 14011KT 31/20 A3007 RMK A01 T03080200  RH  052%=      5-min Rain = 0
KWA1 262241Z 15013KT 31/21 A3007 RMK A01 T03100205  RH  054%=      5-min Rain = 0
KWA1 262242Z 15012KT 31/20 A3007 RMK A01 T03130204  RH  052%=      5-min Rain = 0
KWA1 262243Z 14015KT 31/20 A3007 RMK A01 T03140202  RH  051%=      5-min Rain = 0
KWA1 262244Z 14012KT 31/20 A3007 RMK A01 T03130200  RH  051%=      5-min Rain = 0
KWA1 262245Z 14013KT 31/20 A3007 RMK A01 T03110201  RH  052%=      5-min Rain = 0
KWA1 262246Z 15014KT 31/20 A3007 RMK A01 T03100203  RH  053%=      5-min Rain = 0
KWA1 262247Z 14014KT 31/20 A3007 RMK A01 T03100200  RH  052%=      5-min Rain = 0
KWA1 262248Z 14013KT 31/20 A3007 RMK A01 T03100199  RH  052%=      5-min Rain = 0
KWA1 262249Z 14014KT 31/20 A3007 RMK A01 T03090200  RH  052%=      5-min Rain = 0
KWA1 262250Z 13015KT 31/20 A3007 RMK A01 T03090200  RH  052%=      5-min Rain = 0
KWA1 262251Z 13012KT 31/20 A3007 RMK A01 T03080199  RH  052%=      5-min Rain = 0
KWA1 262252Z 14014KT 31/20 A3007 RMK A01 T03100199  RH  052%=      5-min Rain = 0
KWA1 262253Z 14013KT 31/20 A3007 RMK A01 T03110199  RH  051%=      5-min Rain = 0
KWA1 262254Z 15013KT 31/20 A3007 RMK A01 T03110199  RH  051%=      5-min Rain = 0
KWA1 262255Z 15012KT 31/19 A3007 RMK A01 T03110193  RH  049%=      5-min Rain = 0
KWA1 262256Z 15013KT 31/20 A3007 RMK A01 T03100196  RH  051%=      5-min Rain = 0
KWA1 262257Z 16012KT 31/20 A3007 RMK A01 T03110198  RH  051%=      5-min Rain = 0
KWA1 262258Z 16012KT 31/20 A3007 RMK A01 T03110198  RH  051%=      5-min Rain = 0
KWA1 262259Z 15011KT 31/20 A3007 RMK A01 T03120198  RH  051%=      5-min Rain = 0
KWA1 262300Z 15013KT 31/20 A3007 RMK A01 T03120198  RH  051%=      5-min Rain = 0
KWA1 262301Z 15013KT 31/20 A3007 RMK A01 T03130197  RH  050%=      5-min Rain = 0
KWA1 262302Z 15011KT 31/20 A3007 RMK A01 T03130197  RH  050%=      5-min Rain = 0
KWA1 262303Z 14011KT 31/19 A3007 RMK A01 T03120194  RH  050%=      5-min Rain = 0
KWA1 262304Z 14010KT 31/20 A3007 RMK A01 T03110198  RH  051%=      5-min Rain = 0
KWA1 262305Z 13013KT 31/20 A3007 RMK A01 T03110196  RH  050%=      5-min Rain = 0
KWA1 262306Z 13014KT 31/20 A3007 RMK A01 T03120195  RH  050%=      5-min Rain = 0
KWA1 262307Z 14013KT 31/20 A3007 RMK A01 T03110197  RH  051%=      5-min Rain = 0
KWA1 262308Z 14016KT 31/20 A3007 RMK A01 T03110195  RH  050%=      5-min Rain = 0
KWA1 262309Z 16013KT 31/20 A3007 RMK A01 T03110197  RH  051%=      5-min Rain = 0
KWA1 262310Z 17012KT 31/20 A3007 RMK A01 T03120196  RH  050%=      5-min Rain = 0
KWA1 262311Z 16012KT 31/20 A3007 RMK A01 T03120197  RH  050%=      5-min Rain = 0
KWA1 262312Z 16013KT 31/20 A3007 RMK A01 T03120197  RH  051%=      5-min Rain = 0
KWA1 262313Z 15011KT 31/20 A3007 RMK A01 T03110195  RH  050%=      5-min Rain = 0
KWA1 262314Z 15014KT 31/20 A3007 RMK A01 T03110196  RH  051%=      5-min Rain = 0
KWA1 262315Z 15014KT 31/19 A3007 RMK A01 T03100194  RH  050%=      5-min Rain = 0
KWA1 262316Z 16012KT 31/20 A3007 RMK A01 T03110196  RH  050%=      5-min Rain = 0
KWA1 262317Z 15012KT 31/20 A3007 RMK A01 T03140196  RH  050%=      5-min Rain = 0
KWA1 262318Z 13012KT 31/20 A3007 RMK A01 T03130197  RH  050%=      5-min Rain = 0
KWA1 262319Z 14011KT 31/20 A3007 RMK A01 T03130196  RH  050%=      5-min Rain = 0
KWA1 262320Z 14011KT 31/20 A3007 RMK A01 T03120198  RH  051%=      5-min Rain = 0
KWA1 262321Z 15014KT 31/20 A3008 RMK A01 T03110195  RH  050%=      5-min Rain = 0
KWA1 262322Z 14012KT 31/20 A3008 RMK A01 T03100195  RH  050%=      5-min Rain = 0
KWA1 262323Z 14010KT 31/20 A3008 RMK A01 T03100196  RH  051%=      5-min Rain = 0
KWA1 262324Z 14009KT 31/20 A3008 RMK A01 T03100196  RH  051%=      5-min Rain = 0
KWA1 262325Z 14009KT 31/20 A3008 RMK A01 T03100197  RH  051%=      5-min Rain = 0
KWA1 262326Z 13012KT 31/19 A3008 RMK A01 T03100194  RH  050%=      5-min Rain = 0
KWA1 262327Z 15014KT 31/19 A3008 RMK A01 T03100194  RH  050%=      5-min Rain = 0
KWA1 262328Z 15013KT 31/19 A3008 RMK A01 T03090192  RH  050%=      5-min Rain = 0
KWA1 262329Z 16012KT 31/19 A3007 RMK A01 T03100193  RH  050%=      5-min Rain = 0
KWA1 262330Z 14013KT 31/19 A3008 RMK A01 T03110194  RH  050%=      5-min Rain = 0
KWA1 262331Z 14010KT 31/19 A3008 RMK A01 T03110193  RH  050%=      5-min Rain = 0
KWA1 262332Z 14010KT 31/20 A3008 RMK A01 T03110197  RH  051%=      5-min Rain = 0
KWA1 262333Z 15011KT 31/19 A3008 RMK A01 T03110193  RH  050%=      5-min Rain = 0
KWA1 262334Z 14012KT 31/19 A3008 RMK A01 T03090193  RH  050%=      5-min Rain = 0
KWA1 262335Z 15012KT 31/19 A3008 RMK A01 T03080193  RH  050%=      5-min Rain = 0
KWA1 262336Z 16011KT 31/19 A3008 RMK A01 T03080192  RH  050%=      5-min Rain = 0
KWA1 262337Z 15012KT 31/19 A3008 RMK A01 T03070193  RH  051%=      5-min Rain = 0
KWA1 262338Z 16012KT 31/19 A3007 RMK A01 T03060194  RH  051%=      5-min Rain = 0
KWA1 262339Z 17012KT 31/19 A3007 RMK A01 T03060194  RH  051%=      5-min Rain = 0
KWA1 262340Z 17011KT 31/20 A3007 RMK A01 T03070195  RH  051%=      5-min Rain = 0
KWA1 262341Z 16012KT 31/20 A3007 RMK A01 T03070195  RH  051%=      5-min Rain = 0
KWA1 262342Z 14012KT 31/20 A3007 RMK A01 T03070195  RH  051%=      5-min Rain = 0
KWA1 262343Z 14011KT 31/19 A3007 RMK A01 T03060193  RH  051%=      5-min Rain = 0
KWA1 262344Z 14010KT 31/19 A3007 RMK A01 T03050193  RH  051%=      5-min Rain = 0
KWA1 262345Z 15013KT 30/19 A3007 RMK A01 T03040194  RH  052%=      5-min Rain = 0
KWA1 262346Z 14011KT 30/20 A3007 RMK A01 T03040196  RH  052%=      5-min Rain = 0
KWA1 262347Z 14012KT 31/20 A3007 RMK A01 T03050195  RH  052%=      5-min Rain = 0
KWA1 262348Z 13012KT 30/19 A3007 RMK A01 T03040194  RH  052%=      5-min Rain = 0
KWA1 262349Z 14012KT 30/19 A3007 RMK A01 T03030194  RH  052%=      5-min Rain = 0
KWA1 262350Z 14012KT 30/19 A3007 RMK A01 T03040193  RH  051%=      5-min Rain = 0
KWA1 262351Z 14012KT 30/19 A3007 RMK A01 T03030193  RH  052%=      5-min Rain = 0
KWA1 262352Z 13011KT 30/20 A3007 RMK A01 T03040195  RH  052%=      5-min Rain = 0
KWA1 262353Z 14012KT 31/19 A3007 RMK A01 T03050194  RH  052%=      5-min Rain = 0
KWA1 262354Z 14013KT 31/19 A3007 RMK A01 T03050193  RH  051%=      5-min Rain = 0
KWA1 262355Z 14011KT 31/19 A3007 RMK A01 T03050193  RH  051%=      5-min Rain = 0
KWA1 262356Z 13011KT 31/19 A3007 RMK A01 T03060194  RH  051%=      5-min Rain = 0
KWA1 262357Z 14010KT 31/20 A3007 RMK A01 T03060195  RH  052%=      5-min Rain = 0
KWA1 262358Z 14010KT 31/19 A3007 RMK A01 T03060194  RH  051%=      5-min Rain = 0
KWA1 262359Z 14011KT 31/20 A3007 RMK A01 T03060195  RH  051%=      5-min Rain = 0
KWA1 270000Z 14010KT 31/20 A3007 RMK A01 T03060195  RH  051%=      5-min Rain = 0
KWA1 270001Z 13012KT 31/19 A3007 RMK A01 T03060193  RH  051%=      5-min Rain = 0
KWA1 270002Z 14010KT 31/19 A3007 RMK A01 T03060192  RH  050%=      5-min Rain = 0
KWA1 270003Z 15010KT 31/19 A3007 RMK A01 T03070194  RH  051%=      5-min Rain = 0
KWA1 270004Z 14010KT 31/19 A3007 RMK A01 T03070193  RH  050%=      5-min Rain = 0
KWA1 270005Z 14009KT 31/19 A3007 RMK A01 T03070194  RH  051%=      5-min Rain = 0
KWA1 270006Z 13009KT 31/19 A3007 RMK A01 T03070193  RH  051%=      5-min Rain = 0
KWA1 270007Z 13010KT 31/19 A3007 RMK A01 T03070193  RH  051%=      5-min Rain = 0
KWA1 270008Z 13011KT 31/19 A3007 RMK A01 T03060194  RH  051%=      5-min Rain = 0
KWA1 270009Z 14009KT 31/19 A3007 RMK A01 T03060194  RH  051%=      5-min Rain = 0
KWA1 270010Z 14008KT 31/20 A3007 RMK A01 T03060195  RH  052%=      5-min Rain = 0
KWA1 270011Z 13010KT 31/19 A3007 RMK A01 T03060194  RH  051%=      5-min Rain = 0
KWA1 270012Z 13010KT 31/19 A3007 RMK A01 T03060194  RH  051%=      5-min Rain = 0
KWA1 270013Z 14009KT 31/20 A3007 RMK A01 T03050196  RH  052%=      5-min Rain = 0
KWA1 270014Z 15011KT 30/19 A3007 RMK A01 T03030194  RH  052%=      5-min Rain = 0
KWA1 270015Z 15011KT 30/20 A3007 RMK A01 T03020195  RH  053%=      5-min Rain = 0
KWA1 270016Z 15011KT 30/19 A3007 RMK A01 T03010194  RH  053%=      5-min Rain = 0
KWA1 270017Z 15011KT 30/19 A3007 RMK A01 T03000194  RH  053%=      5-min Rain = 0
KWA1 270018Z 15013KT 30/19 A3007 RMK A01 T02990194  RH  053%=      5-min Rain = 0
KWA1 270019Z 15012KT 30/19 A3007 RMK A01 T02990194  RH  053%=      5-min Rain = 0
KWA1 270020Z 15011KT 30/19 A3007 RMK A01 T02990194  RH  053%=      5-min Rain = 0
KWA1 270021Z 15012KT 30/19 A3007 RMK A01 T02990193  RH  053%=      5-min Rain = 0
KWA1 270022Z 14011KT 30/19 A3007 RMK A01 T02990192  RH  053%=      5-min Rain = 0
KWA1 270023Z 14010KT 30/19 A3007 RMK A01 T02990190  RH  052%=      5-min Rain = 0
KWA1 270024Z 15009KT 30/19 A3007 RMK A01 T02990192  RH  053%=      5-min Rain = 0
KWA1 270025Z 15012KT 30/19 A3007 RMK A01 T02990190  RH  052%=      5-min Rain = 0
KWA1 270026Z 15011KT 30/19 A3008 RMK A01 T02990189  RH  052%=      5-min Rain = 0
KWA1 270027Z 16010KT 30/19 A3008 RMK A01 T02990191  RH  052%=      5-min Rain = 0
KWA1 270028Z 15010KT 30/19 A3008 RMK A01 T03000191  RH  052%=      5-min Rain = 0
KWA1 270029Z 15011KT 30/19 A3008 RMK A01 T03000189  RH  051%=      5-min Rain = 0
KWA1 270030Z 15011KT 30/19 A3007 RMK A01 T03000188  RH  051%=      5-min Rain = 0
KWA1 270031Z 15012KT 30/19 A3007 RMK A01 T03010188  RH  051%=      5-min Rain = 0
KWA1 270032Z 15010KT 30/19 A3007 RMK A01 T03010190  RH  051%=      5-min Rain = 0
KWA1 270033Z 15010KT 30/19 A3007 RMK A01 T03020191  RH  052%=      5-min Rain = 0
KWA1 270034Z 15010KT 30/19 A3007 RMK A01 T03020191  RH  052%=      5-min Rain = 0
KWA1 270035Z 15010KT 30/19 A3007 RMK A01 T03020191  RH  052%=      5-min Rain = 0
KWA1 270036Z 15010KT 30/19 A3007 RMK A01 T03010191  RH  052%=      5-min Rain = 0
KWA1 270037Z 15009KT 30/19 A3007 RMK A01 T03010192  RH  052%=      5-min Rain = 0
KWA1 270038Z 15010KT 30/19 A3007 RMK A01 T03000192  RH  052%=      5-min Rain = 0
KWA1 270039Z 15010KT 30/19 A3007 RMK A01 T02990189  RH  052%=      5-min Rain = 0
KWA1 270040Z 15011KT 30/19 A3007 RMK A01 T02990189  RH  052%=      5-min Rain = 0
KWA1 270041Z 15009KT 30/19 A3007 RMK A01 T02990188  RH  051%=      5-min Rain = 0
KWA1 270042Z 15008KT 30/19 A3007 RMK A01 T02980188  RH  052%=      5-min Rain = 0
KWA1 270043Z 15008KT 30/19 A3007 RMK A01 T02980188  RH  052%=      5-min Rain = 0
KWA1 270044Z 15009KT 30/19 A3008 RMK A01 T02970187  RH  051%=      5-min Rain = 0
KWA1 270045Z 15008KT 30/19 A3008 RMK A01 T02970186  RH  051%=      5-min Rain = 0
KWA1 270046Z 15009KT 30/19 A3008 RMK A01 T02960185  RH  051%=      5-min Rain = 0
KWA1 270047Z 15008KT 30/19 A3008 RMK A01 T02960186  RH  052%=      5-min Rain = 0
KWA1 270048Z 16008KT 30/19 A3008 RMK A01 T02960186  RH  052%=      5-min Rain = 0
KWA1 270049Z 16008KT 30/19 A3008 RMK A01 T02960188  RH  052%=      5-min Rain = 0
KWA1 270050Z 16008KT 30/19 A3008 RMK A01 T02950187  RH  052%=      5-min Rain = 0
KWA1 270051Z 16008KT 29/19 A3008 RMK A01 T02940188  RH  053%=      5-min Rain = 0
KWA1 270052Z 16007KT 29/19 A3008 RMK A01 T02940188  RH  053%=      5-min Rain = 0
KWA1 270053Z 16007KT 29/19 A3008 RMK A01 T02930188  RH  053%=      5-min Rain = 0
KWA1 270054Z 16007KT 29/19 A3008 RMK A01 T02930189  RH  053%=      5-min Rain = 0
KWA1 270055Z 16007KT 29/19 A3008 RMK A01 T02930189  RH  054%=      5-min Rain = 0
KWA1 270056Z 16006KT 29/19 A3008 RMK A01 T02920190  RH  054%=      5-min Rain = 0
KWA1 270057Z 16007KT 29/19 A3008 RMK A01 T02920190  RH  054%=      5-min Rain = 0
KWA1 270058Z 16006KT 29/19 A3008 RMK A01 T02920191  RH  054%=      5-min Rain = 0
KWA1 270059Z 16006KT 29/19 A3008 RMK A01 T02920191  RH  054%=      5-min Rain = 0
KWA1 270100Z 16006KT 29/19 A3008 RMK A01 T02920190  RH  054%=      5-min Rain = 0
KWA1 270101Z 16006KT 29/19 A3008 RMK A01 T02920191  RH  055%=      5-min Rain = 0
KWA1 270102Z 16005KT 29/19 A3008 RMK A01 T02920191  RH  055%=      5-min Rain = 0
KWA1 270103Z 16005KT 29/19 A3008 RMK A01 T02920192  RH  055%=      5-min Rain = 0
KWA1 270104Z 15005KT 29/19 A3008 RMK A01 T02920192  RH  055%=      5-min Rain = 0
KWA1 270105Z 15005KT 29/19 A3008 RMK A01 T02920192  RH  055%=      5-min Rain = 0
KWA1 270106Z 15005KT 29/19 A3008 RMK A01 T02910191  RH  055%=      5-min Rain = 0
KWA1 270107Z 15005KT 29/19 A3008 RMK A01 T02910192  RH  055%=      5-min Rain = 0
KWA1 270108Z 14005KT 29/19 A3008 RMK A01 T02910193  RH  055%=      5-min Rain = 0
KWA1 270109Z 14005KT 29/19 A3008 RMK A01 T02900192  RH  055%=      5-min Rain = 0
KWA1 270110Z 14005KT 29/19 A3008 RMK A01 T02900193  RH  056%=      5-min Rain = 0
KWA1 270111Z 14005KT 29/19 A3008 RMK A01 T02900194  RH  056%=      5-min Rain = 0
KWA1 270112Z 14005KT 29/19 A3008 RMK A01 T02900193  RH  056%=      5-min Rain = 0
KWA1 270113Z 14005KT 29/19 A3008 RMK A01 T02890193  RH  056%=      5-min Rain = 0
KWA1 270114Z 14005KT 29/19 A3008 RMK A01 T02890194  RH  057%=      5-min Rain = 0
KWA1 270115Z 14004KT 29/20 A3008 RMK A01 T02900195  RH  057%=      5-min Rain = 0
KWA1 270116Z 14005KT 29/19 A3008 RMK A01 T02900194  RH  056%=      5-min Rain = 0
KWA1 270117Z 14005KT 29/19 A3008 RMK A01 T02890194  RH  056%=      5-min Rain = 0
KWA1 270118Z 14004KT 29/20 A3008 RMK A01 T02890195  RH  057%=      5-min Rain = 0
KWA1 270119Z 14004KT 29/20 A3008 RMK A01 T02890196  RH  057%=      5-min Rain = 0
KWA1 270120Z 14004KT 29/20 A3008 RMK A01 T02890195  RH  057%=      5-min Rain = 0
KWA1 270121Z 14004KT 29/20 A3008 RMK A01 T02900197  RH  057%=      5-min Rain = 0
KWA1 270122Z 13005KT 29/20 A3008 RMK A01 T02890197  RH  057%=      5-min Rain = 0
KWA1 270123Z 13005KT 29/20 A3008 RMK A01 T02890196  RH  057%=      5-min Rain = 0
KWA1 270124Z 13005KT 29/20 A3008 RMK A01 T02890197  RH  058%=      5-min Rain = 0
KWA1 270125Z 13004KT 29/20 A3008 RMK A01 T02890198  RH  058%=      5-min Rain = 0
KWA1 270126Z 13004KT 29/20 A3008 RMK A01 T02880199  RH  059%=      5-min Rain = 0
KWA1 270127Z 14004KT 29/20 A3008 RMK A01 T02880198  RH  059%=      5-min Rain = 0
KWA1 270128Z 13004KT 29/20 A3008 RMK A01 T02870198  RH  059%=      5-min Rain = 0
KWA1 270129Z 13004KT 29/20 A3008 RMK A01 T02870199  RH  059%=      5-min Rain = 0
KWA1 270130Z 13004KT 29/20 A3008 RMK A01 T02860200  RH  059%=      5-min Rain = 0
KWA1 270131Z 13004KT 29/20 A3008 RMK A01 T02850199  RH  060%=      5-min Rain = 0
KWA1 270132Z 13004KT 29/20 A3008 RMK A01 T02850199  RH  060%=      5-min Rain = 0
KWA1 270133Z 13004KT 29/20 A3008 RMK A01 T02850199  RH  060%=      5-min Rain = 0
KWA1 270134Z 13005KT 28/20 A3008 RMK A01 T02840199  RH  060%=      5-min Rain = 0
KWA1 270135Z 13005KT 28/20 A3008 RMK A01 T02840199  RH  060%=      5-min Rain = 0
KWA1 270136Z 13005KT 28/20 A3008 RMK A01 T02830200  RH  061%=      5-min Rain = 0
KWA1 270137Z 13005KT 28/20 A3008 RMK A01 T02830201  RH  061%=      5-min Rain = 0
KWA1 270138Z 13005KT 28/20 A3008 RMK A01 T02830200  RH  061%=      5-min Rain = 0
KWA1 270139Z 13005KT 28/20 A3008 RMK A01 T02820201  RH  061%=      5-min Rain = 0
KWA1 270140Z 13006KT 28/20 A3008 RMK A01 T02810201  RH  062%=      5-min Rain = 0
KWA1 270141Z 13006KT 28/20 A3008 RMK A01 T02810202  RH  062%=      5-min Rain = 0
KWA1 270142Z 12005KT 28/20 A3008 RMK A01 T02810203  RH  063%=      5-min Rain = 0
KWA1 270143Z 12007KT 28/20 A3009 RMK A01 T02800202  RH  063%=      5-min Rain = 0
KWA1 270144Z 12006KT 28/20 A3009 RMK A01 T02790201  RH  062%=      5-min Rain = 0
KWA1 270145Z 12005KT 28/20 A3009 RMK A01 T02790202  RH  063%=      5-min Rain = 0
KWA1 270146Z 11006KT 28/20 A3009 RMK A01 T02780201  RH  063%=      5-min Rain = 0
KWA1 270147Z 11006KT 28/20 A3009 RMK A01 T02780202  RH  063%=      5-min Rain = 0
KWA1 270148Z 12005KT 28/20 A3009 RMK A01 T02780203  RH  064%=      5-min Rain = 0
KWA1 270149Z 13006KT 28/20 A3009 RMK A01 T02770202  RH  064%=      5-min Rain = 0
KWA1 270150Z 12006KT 28/20 A3009 RMK A01 T02780202  RH  063%=      5-min Rain = 0
KWA1 270151Z 13007KT 28/20 A3009 RMK A01 T02770202  RH  063%=      5-min Rain = 0
KWA1 270152Z 13006KT 28/20 A3009 RMK A01 T02770202  RH  063%=      5-min Rain = 0
KWA1 270153Z 13006KT 28/20 A3009 RMK A01 T02770202  RH  064%=      5-min Rain = 0
KWA1 270154Z 13006KT 28/20 A3009 RMK A01 T02760203  RH  064%=      5-min Rain = 0
KWA1 270155Z 13006KT 28/20 A3009 RMK A01 T02750203  RH  065%=      5-min Rain = 0
KWA1 270156Z 13006KT 28/20 A3009 RMK A01 T02750204  RH  065%=      5-min Rain = 0
KWA1 270157Z 13006KT 27/20 A3009 RMK A01 T02740204  RH  065%=      5-min Rain = 0
KWA1 270158Z 13006KT 27/20 A3009 RMK A01 T02730204  RH  066%=      5-min Rain = 0
KWA1 270159Z 13006KT 27/20 A3009 RMK A01 T02720204  RH  066%=      5-min Rain = 0
KWA1 270200Z 13006KT 27/20 A3009 RMK A01 T02720204  RH  066%=      5-min Rain = 0
KWA1 270201Z 13006KT 27/20 A3009 RMK A01 T02710204  RH  067%=      5-min Rain = 0
KWA1 270202Z 13007KT 27/20 A3009 RMK A01 T02710204  RH  067%=      5-min Rain = 0
KWA1 270203Z 13007KT 27/20 A3009 RMK A01 T02700204  RH  067%=      5-min Rain = 0
KWA1 270204Z 13008KT 27/20 A3009 RMK A01 T02700204  RH  067%=      5-min Rain = 0
KWA1 270205Z 13008KT 27/20 A3009 RMK A01 T02690204  RH  067%=      5-min Rain = 0
KWA1 270206Z 14008KT 27/20 A3009 RMK A01 T02690204  RH  067%=      5-min Rain = 0
KWA1 270207Z 14007KT 27/20 A3009 RMK A01 T02690204  RH  068%=      5-min Rain = 0
KWA1 270208Z 14008KT 27/20 A3009 RMK A01 T02680204  RH  068%=      5-min Rain = 0
KWA1 270209Z 14008KT 27/20 A3009 RMK A01 T02680204  RH  068%=      5-min Rain = 0
KWA1 270210Z 14007KT 27/20 A3009 RMK A01 T02680203  RH  068%=      5-min Rain = 0
KWA1 270211Z 14007KT 27/20 A3009 RMK A01 T02680204  RH  068%=      5-min Rain = 0
KWA1 270212Z 14007KT 27/20 A3009 RMK A01 T02680203  RH  068%=      5-min Rain = 0
KWA1 270213Z 14007KT 27/20 A3009 RMK A01 T02680203  RH  067%=      5-min Rain = 0
KWA1 270214Z 14007KT 27/20 A3009 RMK A01 T02680203  RH  067%=      5-min Rain = 0
KWA1 270215Z 14007KT 27/20 A3009 RMK A01 T02680202  RH  067%=      5-min Rain = 0
KWA1 270216Z 14007KT 27/20 A3009 RMK A01 T02680203  RH  067%=      5-min Rain = 0
KWA1 270217Z 14006KT 27/20 A3009 RMK A01 T02680203  RH  067%=      5-min Rain = 0
KWA1 270218Z 14007KT 27/20 A3009 RMK A01 T02680204  RH  068%=      5-min Rain = 0
KWA1 270219Z 14006KT 27/20 A301 RMK A01 T02670204  RH  068%=      5-min Rain = 0
KWA1 270220Z 14006KT 27/20 A301 RMK A01 T02670204  RH  068%=      5-min Rain = 0
KWA1 270221Z 14006KT 27/20 A301 RMK A01 T02660203  RH  068%=      5-min Rain = 0
KWA1 270222Z 14006KT 27/20 A301 RMK A01 T02660203  RH  068%=      5-min Rain = 0
KWA1 270223Z 14006KT 27/20 A3009 RMK A01 T02660204  RH  069%=      5-min Rain = 0
KWA1 270224Z 14006KT 27/20 A3009 RMK A01 T02650203  RH  069%=      5-min Rain = 0
KWA1 270225Z 14006KT 27/20 A3009 RMK A01 T02650204  RH  069%=      5-min Rain = 0
KWA1 270226Z 14006KT 27/20 A3009 RMK A01 T02660204  RH  069%=      5-min Rain = 0
KWA1 270227Z 14006KT 27/21 A3009 RMK A01 T02650205  RH  069%=      5-min Rain = 0
KWA1 270228Z 14006KT 26/21 A3009 RMK A01 T02640205  RH  070%=      5-min Rain = 0
KWA1 270229Z 14006KT 26/21 A3009 RMK A01 T02640205  RH  070%=      5-min Rain = 0
KWA1 270230Z 14006KT 26/21 A301 RMK A01 T02630205  RH  070%=      5-min Rain = 0
KWA1 270231Z 14006KT 26/20 A301 RMK A01 T02630204  RH  070%=      5-min Rain = 0
KWA1 270232Z 14006KT 26/20 A301 RMK A01 T02630204  RH  070%=      5-min Rain = 0
KWA1 270233Z 14006KT 26/20 A301 RMK A01 T02620203  RH  070%=      5-min Rain = 0
KWA1 270234Z 14006KT 26/20 A301 RMK A01 T02620204  RH  070%=      5-min Rain = 0
KWA1 270235Z 14007KT 26/20 A301 RMK A01 T02620204  RH  070%=      5-min Rain = 0
KWA1 270236Z 14006KT 26/20 A301 RMK A01 T02620204  RH  070%=      5-min Rain = 0
KWA1 270237Z 14006KT 26/21 A301 RMK A01 T02620205  RH  071%=      5-min Rain = 0
KWA1 270238Z 14006KT 26/20 A301 RMK A01 T02610204  RH  071%=      5-min Rain = 0
KWA1 270239Z 14006KT 26/20 A301 RMK A01 T02610204  RH  071%=      5-min Rain = 0
KWA1 270240Z 14006KT 26/20 A301 RMK A01 T02610204  RH  071%=      5-min Rain = 0
KWA1 270241Z 14007KT 26/20 A301 RMK A01 T02600204  RH  071%=      5-min Rain = 0
KWA1 270242Z 14007KT 26/20 A301 RMK A01 T02600204  RH  071%=      5-min Rain = 0
KWA1 270243Z 13006KT 26/20 A301 RMK A01 T02600204  RH  071%=      5-min Rain = 0
KWA1 270244Z 13006KT 26/20 A301 RMK A01 T02590204  RH  072%=      5-min Rain = 0
KWA1 270245Z 13006KT 26/21 A301 RMK A01 T02590205  RH  072%=      5-min Rain = 0
KWA1 270246Z 12006KT 26/21 A3011 RMK A01 T02580205  RH  072%=      5-min Rain = 0
KWA1 270247Z 12006KT 26/21 A3011 RMK A01 T02580205  RH  073%=      5-min Rain = 0
KWA1 270248Z 13005KT 26/21 A3011 RMK A01 T02570206  RH  073%=      5-min Rain = 0
KWA1 270249Z 13005KT 26/21 A3011 RMK A01 T02560206  RH  074%=      5-min Rain = 0
KWA1 270250Z 13005KT 26/21 A3011 RMK A01 T02550205  RH  074%=      5-min Rain = 0
KWA1 270251Z 12005KT 26/21 A3011 RMK A01 T02550206  RH  074%=      5-min Rain = 0
KWA1 270252Z 12005KT 26/21 A3011 RMK A01 T02550205  RH  074%=      5-min Rain = 0
KWA1 270253Z 12005KT 25/21 A3011 RMK A01 T02540205  RH  074%=      5-min Rain = 0
KWA1 270254Z 12005KT 25/21 A3011 RMK A01 T02540205  RH  074%=      5-min Rain = 0
KWA1 270255Z 13005KT 25/21 A3011 RMK A01 T02540205  RH  074%=      5-min Rain = 0
KWA1 270256Z 13006KT 25/21 A3011 RMK A01 T02540205  RH  074%=      5-min Rain = 0
KWA1 270257Z 13006KT 25/21 A3011 RMK A01 T02540205  RH  074%=      5-min Rain = 0
KWA1 270258Z 13006KT 25/21 A3011 RMK A01 T02530205  RH  075%=      5-min Rain = 0
KWA1 270259Z 13006KT 25/21 A3011 RMK A01 T02530205  RH  075%=      5-min Rain = 0
KWA1 270300Z 14007KT 25/20 A3011 RMK A01 T02520204  RH  075%=      5-min Rain = 0
KWA1 270301Z 14007KT 25/20 A3011 RMK A01 T02520204  RH  075%=      5-min Rain = 0
KWA1 270302Z 14007KT 25/20 A3011 RMK A01 T02520204  RH  074%=      5-min Rain = 0
KWA1 270303Z 14008KT 25/20 A3011 RMK A01 T02530202  RH  074%=      5-min Rain = 0
KWA1 270304Z 14007KT 25/20 A3011 RMK A01 T02540202  RH  073%=      5-min Rain = 0
KWA1 270305Z 14007KT 26/20 A3012 RMK A01 T02550202  RH  073%=      5-min Rain = 0
KWA1 270306Z 14008KT 26/20 A3012 RMK A01 T02550202  RH  072%=      5-min Rain = 0
KWA1 270307Z 14007KT 26/20 A3012 RMK A01 T02550202  RH  072%=      5-min Rain = 0
KWA1 270308Z 14008KT 26/20 A3012 RMK A01 T02560201  RH  072%=      5-min Rain = 0
KWA1 270309Z 14007KT 26/20 A3012 RMK A01 T02560201  RH  072%=      5-min Rain = 0
KWA1 270310Z 14008KT 26/20 A3012 RMK A01 T02560201  RH  071%=      5-min Rain = 0
KWA1 270311Z 14008KT 26/20 A3012 RMK A01 T02570202  RH  072%=      5-min Rain = 0
KWA1 270312Z 14007KT 26/20 A3012 RMK A01 T02570202  RH  072%=      5-min Rain = 0
KWA1 270313Z 14008KT 26/20 A3012 RMK A01 T02560202  RH  072%=      5-min Rain = 0
KWA1 270314Z 14009KT 26/20 A3012 RMK A01 T02550202  RH  072%=      5-min Rain = 0
KWA1 270315Z 14009KT 26/20 A3012 RMK A01 T02550202  RH  073%=      5-min Rain = 0
KWA1 270316Z 14010KT 25/20 A3012 RMK A01 T02540202  RH  073%=      5-min Rain = 0
KWA1 270317Z 13012KT 26/20 A3012 RMK A01 T02550200  RH  072%=      5-min Rain = 0
KWA1 270318Z 14013KT 26/20 A3012 RMK A01 T02570199  RH  070%=      5-min Rain = 0
KWA1 270319Z 14012KT 26/20 A3012 RMK A01 T02590200  RH  070%=      5-min Rain = 0
KWA1 270320Z 14013KT 26/20 A3012 RMK A01 T02600200  RH  069%=      5-min Rain = 0
KWA1 270321Z 13015KT 26/20 A3012 RMK A01 T02610199  RH  069%=      5-min Rain = 0
KWA1 270322Z 14016KT 26/20 A3012 RMK A01 T02630199  RH  068%=      5-min Rain = 0
KWA1 270323Z 14014KT 26/20 A3012 RMK A01 T02640199  RH  067%=      5-min Rain = 0
KWA1 270324Z 14014KT 27/20 A3012 RMK A01 T02650199  RH  067%=      5-min Rain = 0
KWA1 270325Z 14013KT 27/20 A3012 RMK A01 T02650199  RH  067%=      5-min Rain = 0
KWA1 270326Z 14013KT 26/20 A3012 RMK A01 T02640199  RH  068%=      5-min Rain = 0
KWA1 270327Z 14013KT 26/20 A3012 RMK A01 T02630199  RH  068%=      5-min Rain = 0
KWA1 270328Z 14012KT 26/20 A3012 RMK A01 T02630200  RH  068%=      5-min Rain = 0
KWA1 270329Z 14013KT 26/20 A3012 RMK A01 T02630200  RH  068%=      5-min Rain = 0
KWA1 270330Z 14012KT 26/20 A3012 RMK A01 T02620200  RH  069%=      5-min Rain = 0
KWA1 270331Z 14013KT 26/20 A3012 RMK A01 T02620200  RH  069%=      5-min Rain = 0
KWA1 270332Z 14012KT 26/20 A3013 RMK A01 T02610200  RH  069%=      5-min Rain = 0
KWA1 270333Z 14012KT 26/20 A3013 RMK A01 T02610200  RH  069%=      5-min Rain = 0
KWA1 270334Z 14010KT 26/20 A3013 RMK A01 T02600200  RH  069%=      5-min Rain = 0
KWA1 270335Z 14011KT 26/20 A3013 RMK A01 T02600201  RH  070%=      5-min Rain = 0
KWA1 270336Z 14011KT 26/20 A3013 RMK A01 T02590200  RH  070%=      5-min Rain = 0
KWA1 270337Z 14011KT 26/20 A3013 RMK A01 T02590200  RH  070%=      5-min Rain = 0
KWA1 270338Z 14010KT 26/20 A3013 RMK A01 T02580201  RH  070%=      5-min Rain = 0
KWA1 270339Z 14012KT 26/20 A3013 RMK A01 T02590201  RH  071%=      5-min Rain = 0
KWA1 270340Z 14011KT 26/20 A3013 RMK A01 T02580201  RH  071%=      5-min Rain = 0
KWA1 270341Z 14011KT 26/20 A3013 RMK A01 T02580201  RH  071%=      5-min Rain = 0
KWA1 270342Z 14012KT 26/20 A3013 RMK A01 T02580201  RH  071%=      5-min Rain = 0
KWA1 270343Z 14011KT 26/20 A3013 RMK A01 T02580201  RH  071%=      5-min Rain = 0
KWA1 270344Z 14012KT 26/20 A3013 RMK A01 T02580201  RH  071%=      5-min Rain = 0
KWA1 270345Z 14012KT 26/20 A3013 RMK A01 T02570201  RH  071%=      5-min Rain = 0
KWA1 270346Z 14012KT 26/20 A3013 RMK A01 T02570201  RH  071%=      5-min Rain = 0
KWA1 270347Z 14012KT 26/20 A3013 RMK A01 T02570201  RH  071%=      5-min Rain = 0
KWA1 270348Z 14012KT 26/20 A3013 RMK A01 T02580201  RH  071%=      5-min Rain = 0
KWA1 270349Z 14011KT 26/20 A3013 RMK A01 T02580201  RH  071%=      5-min Rain = 0
KWA1 270350Z 14012KT 26/20 A3013 RMK A01 T02580201  RH  071%=      5-min Rain = 0
KWA1 270351Z 14012KT 26/20 A3013 RMK A01 T02580201  RH  071%=      5-min Rain = 0
KWA1 270352Z 14012KT 26/20 A3013 RMK A01 T02580201  RH  071%=      5-min Rain = 0
KWA1 270353Z 14011KT 26/20 A3014 RMK A01 T02580202  RH  071%=      5-min Rain = 0
KWA1 270354Z 14012KT 26/20 A3014 RMK A01 T02570202  RH  071%=      5-min Rain = 0
KWA1 270355Z 14012KT 26/20 A3014 RMK A01 T02570202  RH  072%=      5-min Rain = 0
KWA1 270356Z 14012KT 26/20 A3014 RMK A01 T02570202  RH  072%=      5-min Rain = 0
KWA1 270357Z 14013KT 26/20 A3014 RMK A01 T02570202  RH  072%=      5-min Rain = 0
KWA1 270358Z 14013KT 26/20 A3014 RMK A01 T02570202  RH  071%=      5-min Rain = 0
KWA1 270359Z 14011KT 26/20 A3014 RMK A01 T02570202  RH  071%=      5-min Rain = 0
KWA1 270400Z 14012KT 26/20 A3014 RMK A01 T02570202  RH  072%=      5-min Rain = 0
KWA1 270401Z 14013KT 26/20 A3014 RMK A01 T02570202  RH  072%=      5-min Rain = 0
KWA1 270402Z 15012KT 26/20 A3014 RMK A01 T02570202  RH  071%=      5-min Rain = 0
KWA1 270403Z 14011KT 26/20 A3015 RMK A01 T02570202  RH  072%=      5-min Rain = 0
KWA1 270404Z 15013KT 26/20 A3015 RMK A01 T02570202  RH  072%=      5-min Rain = 0
KWA1 270405Z 15012KT 26/20 A3015 RMK A01 T02570202  RH  071%=      5-min Rain = 0
KWA1 270406Z 15012KT 26/20 A3015 RMK A01 T02580202  RH  071%=      5-min Rain = 0
KWA1 270407Z 15012KT 26/20 A3015 RMK A01 T02570202  RH  071%=      5-min Rain = 0
KWA1 270408Z 15013KT 26/20 A3015 RMK A01 T02570202  RH  072%=      5-min Rain = 0
KWA1 270409Z 15012KT 26/20 A3015 RMK A01 T02570202  RH  072%=      5-min Rain = 0
KWA1 270410Z 15012KT 26/20 A3015 RMK A01 T02570203  RH  072%=      5-min Rain = 0
KWA1 270411Z 15012KT 26/20 A3015 RMK A01 T02570202  RH  072%=      5-min Rain = 0
KWA1 270412Z 15012KT 26/20 A3015 RMK A01 T02570203  RH  072%=      5-min Rain = 0
KWA1 270413Z 15012KT 26/20 A3015 RMK A01 T02570203  RH  072%=      5-min Rain = 0
KWA1 270414Z 15013KT 26/20 A3015 RMK A01 T02570202  RH  072%=      5-min Rain = 0
KWA1 270415Z 16012KT 26/20 A3015 RMK A01 T02570202  RH  072%=      5-min Rain = 0
KWA1 270416Z 15013KT 26/20 A3015 RMK A01 T02570202  RH  072%=      5-min Rain = 0
KWA1 270417Z 15011KT 26/20 A3016 RMK A01 T02570203  RH  072%=      5-min Rain = 0
KWA1 270418Z 15012KT 26/20 A3016 RMK A01 T02570203  RH  072%=      5-min Rain = 0
KWA1 270419Z 15013KT 26/20 A3016 RMK A01 T02570202  RH  072%=      5-min Rain = 0
KWA1 270420Z 15012KT 26/20 A3016 RMK A01 T02570202  RH  072%=      5-min Rain = 0
KWA1 270421Z 15012KT 26/20 A3016 RMK A01 T02560201  RH  072%=      5-min Rain = 0
KWA1 270422Z 15011KT 26/20 A3016 RMK A01 T02570202  RH  072%=      5-min Rain = 0
KWA1 270423Z 14011KT 26/20 A3016 RMK A01 T02560201  RH  072%=      5-min Rain = 0
KWA1 270424Z 14011KT 26/20 A3016 RMK A01 T02560201  RH  072%=      5-min Rain = 0
KWA1 270425Z 14010KT 26/20 A3016 RMK A01 T02550201  RH  072%=      5-min Rain = 0
KWA1 270426Z 14011KT 26/20 A3016 RMK A01 T02560201  RH  072%=      5-min Rain = 0
KWA1 270427Z 14011KT 26/20 A3016 RMK A01 T02550201  RH  072%=      5-min Rain = 0
KWA1 270428Z 14011KT 26/20 A3016 RMK A01 T02550200  RH  072%=      5-min Rain = 0
KWA1 270429Z 14011KT 26/20 A3016 RMK A01 T02550200  RH  072%=      5-min Rain = 0
KWA1 270430Z 14011KT 26/20 A3016 RMK A01 T02550200  RH  072%=      5-min Rain = 0
KWA1 270431Z 14011KT 26/20 A3016 RMK A01 T02550200  RH  072%=      5-min Rain = 0
KWA1 270432Z 14010KT 26/20 A3016 RMK A01 T02550200  RH  072%=      5-min Rain = 0
KWA1 270433Z 14010KT 26/20 A3016 RMK A01 T02550200  RH  072%=      5-min Rain = 0
KWA1 270434Z 15009KT 26/20 A3016 RMK A01 T02550201  RH  072%=      5-min Rain = 0
KWA1 270435Z 15008KT 25/20 A3016 RMK A01 T02540201  RH  072%=      5-min Rain = 0
KWA1 270436Z 15009KT 25/20 A3016 RMK A01 T02530200  RH  073%=      5-min Rain = 0
KWA1 270437Z 15009KT 25/20 A3017 RMK A01 T02530200  RH  072%=      5-min Rain = 0
KWA1 270438Z 15009KT 25/20 A3017 RMK A01 T02530200  RH  073%=      5-min Rain = 0
KWA1 270439Z 15009KT 25/20 A3017 RMK A01 T02530200  RH  072%=      5-min Rain = 0
KWA1 270440Z 15008KT 25/20 A3017 RMK A01 T02530200  RH  073%=      5-min Rain = 0
KWA1 270441Z 15009KT 25/20 A3017 RMK A01 T02520200  RH  073%=      5-min Rain = 0
KWA1 270442Z 15008KT 25/20 A3017 RMK A01 T02520200  RH  073%=      5-min Rain = 0
KWA1 270443Z 15009KT 25/20 A3017 RMK A01 T02510199  RH  073%=      5-min Rain = 0
KWA1 270444Z 15009KT 25/20 A3017 RMK A01 T02510198  RH  072%=      5-min Rain = 0
KWA1 270445Z 15009KT 25/20 A3017 RMK A01 T02510197  RH  072%=      5-min Rain = 0
KWA1 270446Z 15008KT 25/20 A3017 RMK A01 T02510197  RH  072%=      5-min Rain = 0
KWA1 270447Z 15009KT 25/20 A3017 RMK A01 T02510197  RH  072%=      5-min Rain = 0
KWA1 270448Z 15008KT 25/20 A3017 RMK A01 T02510196  RH  072%=      5-min Rain = 0
KWA1 270449Z 15008KT 25/20 A3017 RMK A01 T02510197  RH  072%=      5-min Rain = 0
KWA1 270450Z 15008KT 25/20 A3017 RMK A01 T02510196  RH  072%=      5-min Rain = 0
KWA1 270451Z 15009KT 25/20 A3017 RMK A01 T02500197  RH  072%=      5-min Rain = 0
KWA1 270452Z 15008KT 25/20 A3017 RMK A01 T02500196  RH  072%=      5-min Rain = 0
KWA1 270453Z 15008KT 25/20 A3017 RMK A01 T02500196  RH  072%=      5-min Rain = 0
KWA1 270454Z 15008KT 25/20 A3016 RMK A01 T02500196  RH  072%=      5-min Rain = 0
KWA1 270455Z 15008KT 25/20 A3016 RMK A01 T02490196  RH  072%=      5-min Rain = 0
KWA1 270456Z 15008KT 25/20 A3017 RMK A01 T02490195  RH  072%=      5-min Rain = 0
KWA1 270457Z 15007KT 25/20 A3017 RMK A01 T02490195  RH  072%=      5-min Rain = 0
KWA1 270458Z 15008KT 25/20 A3017 RMK A01 T02490195  RH  072%=      5-min Rain = 0
KWA1 270459Z 15008KT 25/19 A3017 RMK A01 T02480194  RH  072%=      5-min Rain = 0

Page generated in 0.0904 seconds.